FW6073 Weather Reports


time (UTC)temp
F
wind
direction
speed
knots
gust
knots
rain 1hr
in
rain 24hr
in
rain mn
in
humidity
%
barometer
mb
20260506222023 53 297 0.9 2.6 0.00 0.00 0.00 43 1011.6
20260506221902 53 278 0.9 2.6 0.00 0.00 0.00 42 1011.6
20260506221823 53 282 0.9 2.6 0.00 0.00 0.00 42 1011.6
20260506221702 53 294 0.9 2.6 0.00 0.00 0.00 42 1011.6
20260506221602 53 287 0.9 2.6 0.00 0.00 0.00 45 1011.6
20260506221502 53 271 0.9 2.6 0.00 0.00 0.00 43 1011.6
20260506221402 53 264 0.9 2.6 0.00 0.00 0.00 42 1011.7
20260506221302 53 297 0.0 1.7 0.00 0.00 0.00 41 1011.7
20260506221202 53 286 0.0 1.7 0.00 0.00 0.00 45 1011.7
20260506221102 53 243 0.0 1.7 0.00 0.00 0.00 44 1011.7
20260506221002 53 217 0.0 1.7 0.00 0.00 0.00 46 1011.6
20260506220902 53 216 0.0 1.7 0.00 0.00 0.00 46 1011.6
20260506220802 53 216 0.0 1.7 0.00 0.00 0.00 44 1011.6
20260506220702 53 216 0.0 1.7 0.00 0.00 0.00 44 1011.6
20260506220602 53 216 0.0 1.7 0.00 0.00 0.00 45 1011.7
20260506220502 53 215 0.0 1.7 0.00 0.00 0.00 44 1011.7
20260506220402 53 215 0.0 0.9 0.00 0.00 0.00 43 1011.7
20260506220302 53 214 0.0 0.9 0.00 0.00 0.00 45 1011.7
20260506220202 53 214 0.0 0.9 0.00 0.00 0.00 43 1011.7
20260506220002 53 207 0.0 1.7 0.00 0.00 0.00 43 1011.6
20260506215923 53 213 0.0 1.7 0.00 0.00 0.00 45 1011.6
20260506215802 53 214 0.9 1.7 0.00 0.00 0.00 44 1011.6
20260506215723 53 215 0.9 1.7 0.00 0.00 0.00 43 1011.6
20260506215602 53 225 0.9 2.6 0.00 0.00 0.00 45 1011.7
20260506215502 53 243 0.9 2.6 0.00 0.00 0.00 46 1011.7
20260506215402 53 254 0.9 2.6 0.00 0.00 0.00 44 1011.6
20260506215305 53 250 0.9 2.6 0.00 0.00 0.00 43 1011.6
20260506215202 53 244 0.9 3.5 0.00 0.00 0.00 43 1011.6
20260506215123 53 252 0.9 3.5 0.00 0.00 0.00 46 1011.6
20260506215002 53 261 0.9 3.5 0.00 0.00 0.00 43 1011.6
20260506214902 53 280 0.9 3.5 0.00 0.00 0.00 44 1011.6
20260506214802 53 294 0.9 3.5 0.00 0.00 0.00 44 1011.6
20260506214702 53 300 0.9 3.5 0.00 0.00 0.00 43 1011.6
20260506214602 53 287 0.9 3.5 0.00 0.00 0.00 44 1011.6
20260506214502 53 260 0.0 3.5 0.00 0.00 0.00 43 1011.6
20260506214423 53 245 0.0 3.5 0.00 0.00 0.00 43 1011.6
20260506214302 53 285 0.0 3.5 0.00 0.00 0.00 45 1011.6
20260506214202 52 2 0.0 0.9 0.00 0.00 0.00 44 1011.6
20260506214102 52 7 0.0 0.9 0.00 0.00 0.00 47 1011.6
20260506214002 52 360 0.0 1.7 0.00 0.00 0.00 48 1011.6
20260506213902 52 1 0.9 2.6 0.00 0.00 0.00 46 1011.5
20260506213802 52 360 0.9 2.6 0.00 0.00 0.00 46 1011.5
20260506213702 52 359 0.9 2.6 0.00 0.00 0.00 45 1011.5
20260506213623 52 358 0.9 2.6 0.00 0.00 0.00 46 1011.5
20260506213502 52 356 0.9 2.6 0.00 0.00 0.00 47 1011.5
20260506213423 52 356 0.9 2.6 0.00 0.00 0.00 45 1011.5
20260506213302 52 356 0.9 2.6 0.00 0.00 0.00 44 1011.5
20260506213202 52 357 0.9 2.6 0.00 0.00 0.00 44 1011.5
20260506213102 52 359 0.9 2.6 0.00 0.00 0.00 44 1011.5
20260506213002 52 360 0.9 2.6 0.00 0.00 0.00 44 1011.6
20260506212902 52 358 0.9 2.6 0.00 0.00 0.00 44 1011.6
20260506212802 52 358 0.9 2.6 0.00 0.00 0.00 43 1011.5
20260506212702 52 358 0.9 2.6 0.00 0.00 0.00 44 1011.5
20260506212602 52 358 0.9 2.6 0.00 0.00 0.00 45 1011.6
20260506212502 52 356 0.9 2.6 0.00 0.00 0.00 44 1011.6
20260506212402 52 355 0.9 2.6 0.00 0.00 0.00 44 1011.6
20260506212305 52 355 0.9 2.6 0.00 0.00 0.00 43 1011.5
20260506212202 52 354 0.9 2.6 0.00 0.00 0.00 44 1011.5
20260506212102 52 348 0.9 2.6 0.00 0.00 0.00 44 1011.6
20260506212002 52 341 0.0 2.6 0.00 0.00 0.00 45 1011.6
20260506211902 52 339 0.0 1.7 0.00 0.00 0.00 46 1011.6
20260506211802 52 343 0.0 2.6 0.00 0.00 0.00 44 1011.6
20260506211702 52 343 0.0 2.6 0.00 0.00 0.00 43 1011.6
20260506211602 52 343 0.0 2.6 0.00 0.00 0.00 43 1011.6
20260506211502 52 347 0.9 4.3 0.00 0.00 0.00 45 1011.6
20260506211402 52 354 0.9 4.3 0.00 0.00 0.00 45 1011.6
20260506211302 52 359 0.9 4.3 0.00 0.00 0.00 44 1011.5
20260506211202 52 357 0.9 4.3 0.00 0.00 0.00 44 1011.5
20260506211102 52 358 1.7 4.3 0.00 0.00 0.00 44 1011.5
20260506211002 52 358 1.7 4.3 0.00 0.00 0.00 44 1011.6
20260506210923 52 357 1.7 4.3 0.00 0.00 0.00 44 1011.6
20260506210802 52 356 1.7 4.3 0.00 0.00 0.00 44 1011.6
20260506210702 52 356 1.7 4.3 0.00 0.00 0.00 44 1011.6
20260506210602 52 355 1.7 4.3 0.00 0.00 0.00 43 1011.6
20260506210502 52 355 1.7 3.5 0.00 0.00 0.00 46 1011.5
20260506210402 52 353 1.7 3.5 0.00 0.00 0.00 44 1011.5
20260506210323 52 351 1.7 3.5 0.00 0.00 0.00 44 1011.5
20260506210223 52 351 1.7 3.5 0.00 0.00 0.00 45 1011.5
20260506210002 52 346 0.9 3.5 0.00 0.00 0.00 44 1011.5
20260506205902 52 348 0.9 3.5 0.00 0.00 0.00 43 1011.5
20260506205802 52 353 0.9 3.5 0.00 0.00 0.00 43 1011.5
20260506205702 52 2 0.9 3.5 0.00 0.00 0.00 45 1011.6
20260506205602 52 4 0.9 3.5 0.00 0.00 0.00 44 1011.6
20260506205523 52 6 0.9 3.5 0.00 0.00 0.00 44 1011.6
20260506205402 52 7 0.9 2.6 0.00 0.00 0.00 43 1011.6
20260506205305 52 4 0.9 2.6 0.00 0.00 0.00 43 1011.6
20260506205202 52 3 0.9 2.6 0.00 0.00 0.00 44 1011.6
20260506205102 52 3 0.9 2.6 0.00 0.00 0.00 43 1011.6
20260506205002 52 358 0.9 2.6 0.00 0.00 0.00 44 1011.5
20260506204902 53 350 0.9 2.6 0.00 0.00 0.00 42 1011.5
20260506204823 53 349 0.9 2.6 0.00 0.00 0.00 42 1011.5
20260506204702 53 334 0.9 2.6 0.00 0.00 0.00 43 1011.6
20260506204602 53 337 0.9 2.6 0.00 0.00 0.00 45 1011.6
20260506204502 53 342 0.9 3.5 0.00 0.00 0.00 43 1011.6
20260506204402 53 342 0.9 3.5 0.00 0.00 0.00 44 1011.6
20260506204302 53 343 0.9 3.5 0.00 0.00 0.00 43 1011.6
20260506204202 53 348 0.9 3.5 0.00 0.00 0.00 44 1011.6
20260506204102 53 351 0.9 3.5 0.00 0.00 0.00 43 1011.6
20260506204002 53 351 0.9 3.5 0.00 0.00 0.00 43 1011.6
20260506203902 53 355 0.9 3.5 0.00 0.00 0.00 42 1011.6
20260506203802 53 355 0.9 3.5 0.00 0.00 0.00 43 1011.6
20260506203702 53 356 0.9 3.5 0.00 0.00 0.00 42 1011.5
20260506203602 53 350 0.9 3.5 0.00 0.00 0.00 42 1011.6
20260506203502 53 345 0.9 3.5 0.00 0.00 0.00 42 1011.6
20260506203423 53 340 0.9 3.5 0.00 0.00 0.00 43 1011.6
20260506203302 53 331 0.9 3.5 0.00 0.00 0.00 42 1011.6
20260506203202 54 325 0.9 3.5 0.00 0.00 0.00 42 1011.6
20260506203102 54 291 0.9 3.5 0.00 0.00 0.00 44 1011.6
20260506203002 54 284 0.9 3.5 0.00 0.00 0.00 44 1011.6
20260506202902 54 284 0.9 3.5 0.00 0.00 0.00 41 1011.6
20260506202823 54 269 0.9 4.3 0.00 0.00 0.00 41 1011.6
20260506202723 54 248 0.9 4.3 0.00 0.00 0.00 41 1011.6
20260506202602 54 243 0.9 4.3 0.00 0.00 0.00 41 1011.6
20260506202502 54 246 0.9 4.3 0.00 0.00 0.00 41 1011.6
20260506202402 54 251 0.9 4.3 0.00 0.00 0.00 41 1011.6
20260506202305 54 258 0.9 4.3 0.00 0.00 0.00 43 1011.6
20260506202202 54 259 0.9 4.3 0.00 0.00 0.00 46 1011.6
20260506202102 54 267 0.9 4.3 0.00 0.00 0.00 45 1011.6
20260506202002 53 279 0.9 4.3 0.00 0.00 0.00 43 1011.6
20260506201902 53 282 0.9 4.3 0.00 0.00 0.00 42 1011.6
20260506201823 53 315 0.9 2.6 0.00 0.00 0.00 42 1011.6
20260506201702 53 330 0.9 2.6 0.00 0.00 0.00 43 1011.6
20260506201602 54 335 0.9 2.6 0.00 0.00 0.00 41 1011.6
20260506201502 54 314 0.0 2.6 0.00 0.00 0.00 42 1011.6
20260506201402 54 308 0.0 2.6 0.00 0.00 0.00 41 1011.6
20260506201302 54 315 0.0 2.6 0.00 0.00 0.00 42 1011.5
20260506201202 54 324 0.0 2.6 0.00 0.00 0.00 42 1011.5
20260506201123 54 324 0.0 2.6 0.00 0.00 0.00 43 1011.6
20260506201003 54 332 0.9 2.6 0.00 0.00 0.00 43 1011.6
20260506200923 54 337 0.9 2.6 0.00 0.00 0.00 42 1011.6
20260506200802 54 332 0.9 2.6 0.00 0.00 0.00 44 1011.6
20260506200702 54 309 0.9 2.6 0.00 0.00 0.00 43 1011.6
20260506200602 54 237 0.9 3.5 0.00 0.00 0.00 44 1011.6
20260506200502 53 228 0.9 3.5 0.00 0.00 0.00 45 1011.6
20260506200402 53 232 0.9 3.5 0.00 0.00 0.00 43 1011.6
20260506200323 53 226 0.9 3.5 0.00 0.00 0.00 43 1011.6
20260506200203 53 225 0.9 3.5 0.00 0.00 0.00 44 1011.6
20260506200002 53 233 0.9 3.5 0.00 0.00 0.00 42 1011.8
20260506195902 53 229 0.9 3.5 0.00 0.00 0.00 43 1011.8
20260506195823 53 232 0.9 3.5 0.00 0.00 0.00 43 1011.7
20260506195702 52 235 0.9 3.5 0.00 0.00 0.00 47 1011.7
20260506195602 52 249 0.9 3.5 0.00 0.00 0.00 43 1011.8
20260506195502 52 258 0.9 3.5 0.00 0.00 0.00 44 1011.9
20260506195402 52 254 0.9 3.5 0.00 0.00 0.00 46 1011.9
20260506195323 52 255 0.9 3.5 0.00 0.00 0.00 44 1011.9
20260506195202 52 280 0.9 2.6 0.00 0.00 0.00 46 1012.0
20260506195102 52 251 0.9 2.6 0.00 0.00 0.00 47 1012.0
20260506195002 52 247 0.9 2.6 0.00 0.00 0.00 44 1011.9
20260506194902 52 242 0.9 2.6 0.00 0.00 0.00 44 1011.9
20260506194823 52 238 0.9 2.6 0.00 0.00 0.00 45 1011.9
20260506194702 52 327 0.9 2.6 0.00 0.00 0.00 46 1011.8
20260506194602 52 342 0.9 2.6 0.00 0.00 0.00 47 1011.8
20260506194502 52 341 0.9 2.6 0.00 0.00 0.00 45 1011.8
20260506194423 52 340 0.9 2.6 0.00 0.00 0.00 47 1011.8
20260506194302 52 349 0.9 2.6 0.00 0.00 0.00 46 1011.8
20260506194202 52 352 0.9 2.6 0.00 0.00 0.00 43 1011.8
20260506194102 52 351 0.9 2.6 0.00 0.00 0.00 43 1011.8
20260506194002 52 350 0.9 2.6 0.00 0.00 0.00 43 1011.8
20260506193902 52 350 0.9 2.6 0.00 0.00 0.00 43 1011.8
20260506193823 52 349 0.9 2.6 0.00 0.00 0.00 44 1011.8
20260506193723 52 347 0.9 2.6 0.00 0.00 0.00 44 1011.9
20260506193602 52 346 0.9 2.6 0.00 0.00 0.00 44 1011.9
20260506193502 52 345 0.9 2.6 0.00 0.00 0.00 43 1011.9
20260506193402 52 346 0.9 2.6 0.00 0.00 0.00 44 1011.9
20260506193302 52 341 0.9 2.6 0.00 0.00 0.00 46 1011.9
20260506193202 52 335 0.9 2.6 0.00 0.00 0.00 44 1011.9
20260506193102 52 336 0.9 2.6 0.00 0.00 0.00 45 1011.9
20260506193002 52 335 0.9 2.6 0.00 0.00 0.00 44 1011.9
20260506192902 52 331 0.9 2.6 0.00 0.00 0.00 45 1012.0
20260506192802 52 335 0.9 2.6 0.00 0.00 0.00 45 1012.0
20260506192702 52 334 0.9 2.6 0.00 0.00 0.00 44 1012.0
20260506192602 52 334 0.9 2.6 0.00 0.00 0.00 46 1012.0
20260506192502 52 341 0.9 2.6 0.00 0.00 0.00 44 1012.1
20260506192402 52 348 0.9 3.5 0.00 0.00 0.00 44 1012.0
20260506192323 52 347 0.9 3.5 0.00 0.00 0.00 44 1012.0
20260506192202 52 348 0.0 3.5 0.00 0.00 0.00 43 1012.0
20260506192103 52 348 0.9 3.5 0.00 0.00 0.00 45 1012.0
20260506192002 52 350 0.9 3.5 0.00 0.00 0.00 44 1012.0
20260506191902 52 350 0.9 3.5 0.00 0.00 0.00 44 1012.0
20260506191802 52 350 0.9 3.5 0.00 0.00 0.00 45 1012.0
20260506191723 52 348 0.9 3.5 0.00 0.00 0.00 45 1012.0
20260506191602 52 352 0.9 3.5 0.00 0.00 0.00 47 1012.2
20260506191502 52 348 0.9 3.5 0.00 0.00 0.00 45 1012.2
20260506191402 52 347 0.9 2.6 0.00 0.00 0.00 47 1012.2
20260506191302 52 350 0.9 2.6 0.00 0.00 0.00 46 1012.2
20260506191224 52 350 0.9 3.5 0.00 0.00 0.00 45 1012.1
20260506191102 52 347 0.9 3.5 0.00 0.00 0.00 44 1012.1
20260506191002 52 342 0.9 3.5 0.00 0.00 0.00 44 1012.1
20260506190902 52 343 1.7 4.3 0.00 0.00 0.00 44 1012.1
20260506190802 52 343 1.7 4.3 0.00 0.00 0.00 44 1012.1
20260506190702 52 348 1.7 4.3 0.00 0.00 0.00 44 1012.3
20260506190602 52 349 1.7 4.3 0.00 0.00 0.00 45 1012.2
20260506190502 52 349 1.7 4.3 0.00 0.00 0.00 44 1012.2
20260506190402 52 348 0.9 4.3 0.00 0.00 0.00 43 1012.2
20260506190302 52 350 0.9 4.3 0.00 0.00 0.00 44 1012.2
20260506190203 52 354 0.9 4.3 0.00 0.00 0.00 44 1012.2
20260506190002 52 5 0.9 4.3 0.00 0.00 0.00 44 1012.2
20260506185902 52 10 0.9 3.5 0.00 0.00 0.00 43 1012.2
20260506185823 52 10 0.9 3.5 0.00 0.00 0.00 45 1012.2
20260506185702 52 288 0.9 5.2 0.00 0.00 0.00 46 1012.2
20260506185602 52 239 0.9 5.2 0.00 0.00 0.00 46 1012.1
20260506185502 52 233 0.9 5.2 0.00 0.00 0.00 46 1012.1
20260506185402 52 266 0.9 5.2 0.00 0.00 0.00 49 1012.0
20260506185323 52 281 0.9 5.2 0.00 0.00 0.00 48 1012.0
20260506185202 52 315 0.9 5.2 0.00 0.00 0.00 47 1012.0
20260506185102 52 315 0.9 5.2 0.00 0.00 0.00 46 1012.0
20260506185002 52 315 0.9 5.2 0.00 0.00 0.00 44 1012.0
20260506184902 52 323 0.9 5.2 0.00 0.00 0.00 46 1012.0
20260506184802 52 338 0.9 5.2 0.00 0.00 0.00 45 1012.0
20260506184723 52 349 0.9 3.5 0.00 0.00 0.00 49 1012.0
20260506184623 51 2 0.9 3.5 0.00 0.00 0.00 47 1011.9
20260506184502 51 4 0.9 3.5 0.00 0.00 0.00 46 1011.9
20260506184402 51 3 0.9 3.5 0.00 0.00 0.00 45 1011.9
20260506184302 51 11 0.9 3.5 0.00 0.00 0.00 45 1011.9
20260506184202 51 12 0.9 3.5 0.00 0.00 0.00 47 1011.9
20260506184123 51 15 0.9 3.5 0.00 0.00 0.00 46 1011.8
20260506184002 51 15 0.9 3.5 0.00 0.00 0.00 45 1011.9
20260506183902 51 23 0.9 3.5 0.00 0.00 0.00 47 1011.9
20260506183802 51 65 0.9 3.5 0.00 0.00 0.00 48 1011.8
20260506183702 51 22 0.9 3.5 0.00 0.00 0.00 50 1011.8
20260506183602 51 356 0.9 3.5 0.00 0.00 0.00 49 1011.8
20260506183503 51 355 0.9 3.5 0.00 0.00 0.00 46 1011.8
20260506183423 51 355 0.9 3.5 0.00 0.00 0.00 47 1011.8
20260506183302 51 345 0.9 3.5 0.00 0.00 0.00 46 1011.8
20260506183202 51 346 0.9 3.5 0.00 0.00 0.00 48 1011.8
20260506183102 51 352 0.9 3.5 0.00 0.00 0.00 48 1011.8
20260506183023 51 358 1.7 3.5 0.00 0.00 0.00 48 1011.9
20260506182902 51 359 1.7 3.5 0.00 0.00 0.00 46 1011.9
20260506182802 51 359 1.7 3.5 0.00 0.00 0.00 45 1011.9
20260506182702 51 358 1.7 3.5 0.00 0.00 0.00 46 1011.9
20260506182602 51 359 1.7 2.6 0.00 0.00 0.00 50 1011.9
20260506182502 51 358 1.7 2.6 0.00 0.00 0.00 47 1011.9
20260506182402 51 356 1.7 2.6 0.00 0.00 0.00 47 1011.9
20260506182323 51 356 1.7 2.6 0.00 0.00 0.00 46 1011.8
20260506182202 51 357 1.7 2.6 0.00 0.00 0.00 47 1011.9
20260506182123 51 354 1.7 2.6 0.00 0.00 0.00 46 1011.9
20260506182023 51 350 1.7 3.5 0.00 0.00 0.00 48 1011.8
20260506181902 51 345 0.9 3.5 0.00 0.00 0.00 46 1011.8
20260506181802 51 344 0.9 3.5 0.00 0.00 0.00 45 1011.9
20260506181702 51 336 0.9 3.5 0.00 0.00 0.00 48 1011.9
20260506181602 51 333 0.9 3.5 0.00 0.00 0.00 48 1011.9
20260506181502 51 341 1.7 3.5 0.00 0.00 0.00 46 1011.9
20260506181402 51 339 1.7 3.5 0.00 0.00 0.00 46 1011.8
20260506181302 51 336 1.7 3.5 0.00 0.00 0.00 46 1011.8
20260506181202 51 330 1.7 3.5 0.00 0.00 0.00 45 1011.8
20260506181102 51 325 0.9 3.5 0.00 0.00 0.00 45 1011.8
20260506181023 51 321 0.9 3.5 0.00 0.00 0.00 47 1011.8
20260506180902 51 336 1.7 5.2 0.00 0.00 0.00 46 1011.8
20260506180823 51 340 1.7 5.2 0.00 0.00 0.00 46 1011.8
20260506180702 51 348 1.7 5.2 0.00 0.00 0.00 45 1011.9
20260506180602 51 351 1.7 5.2 0.00 0.00 0.00 44 1011.9
20260506180502 51 349 1.7 5.2 0.00 0.00 0.00 44 1011.8
20260506180402 51 351 1.7 5.2 0.00 0.00 0.00 46 1011.9
20260506180302 51 351 1.7 5.2 0.00 0.00 0.00 47 1011.9
20260506180202 51 351 1.7 5.2 0.00 0.00 0.00 44 1011.9
20260506180002 52 353 2.6 5.2 0.00 0.00 0.00 45 1011.9
20260506175923 52 349 1.7 5.2 0.00 0.00 0.00 44 1011.8
20260506175802 52 350 1.7 5.2 0.00 0.00 0.00 47 1011.8
20260506175702 52 347 1.7 5.2 0.00 0.00 0.00 46 1011.8
20260506175602 52 343 1.7 5.2 0.00 0.00 0.00 43 1011.9
20260506175523 52 337 1.7 5.2 0.00 0.00 0.00 43 1011.9
20260506175423 52 328 1.7 5.2 0.00 0.00 0.00 44 1011.9
20260506175305 52 332 1.7 5.2 0.00 0.00 0.00 43 1011.9
20260506175202 52 332 1.7 5.2 0.00 0.00 0.00 44 1011.9
20260506175102 53 320 1.7 4.3 0.00 0.00 0.00 44 1011.9
20260506175002 53 314 0.9 4.3 0.00 0.00 0.00 45 1011.9
20260506174923 53 319 0.9 4.3 0.00 0.00 0.00 45 1011.9
20260506174802 52 306 0.9 2.6 0.00 0.00 0.00 48 1011.9
20260506174723 52 320 0.9 2.6 0.00 0.00 0.00 47 1011.9
20260506174602 52 326 0.9 2.6 0.00 0.00 0.00 47 1012.0
20260506174502 52 339 0.9 2.6 0.00 0.00 0.00 45 1012.0
20260506174402 52 346 0.9 2.6 0.00 0.00 0.00 44 1012.0
20260506174302 52 348 0.9 3.5 0.00 0.00 0.00 46 1012.0
20260506174223 52 349 0.9 3.5 0.00 0.00 0.00 52 1012.0
20260506174123 52 349 0.9 3.5 0.00 0.00 0.00 52 1012.0
20260506174023 52 350 0.9 4.3 0.00 0.00 0.00 51 1012.0
20260506173902 51 348 0.9 4.3 0.00 0.00 0.00 46 1012.1
20260506173823 51 345 0.9 4.3 0.00 0.00 0.00 46 1012.1
20260506173702 51 340 0.9 4.3 0.00 0.00 0.00 49 1012.2
20260506173602 51 342 1.7 4.3 0.00 0.00 0.00 49 1012.3
20260506173502 51 346 1.7 4.3 0.00 0.00 0.00 49 1012.3
20260506173402 51 346 1.7 4.3 0.00 0.00 0.00 48 1012.4
20260506173302 51 345 1.7 4.3 0.00 0.00 0.00 46 1012.4
20260506173223 51 346 1.7 4.3 0.00 0.00 0.00 46 1012.4
20260506173123 51 346 1.7 4.3 0.00 0.00 0.00 48 1012.4
20260506173002 51 343 1.7 4.3 0.00 0.00 0.00 47 1012.4
20260506172902 51 340 1.7 4.3 0.00 0.00 0.00 48 1012.4
20260506172802 51 327 1.7 6.1 0.00 0.00 0.00 48 1012.4
20260506172702 50 329 1.7 6.1 0.00 0.00 0.00 51 1012.4
20260506172602 50 330 1.7 6.1 0.00 0.00 0.00 51 1012.4
20260506172502 50 326 1.7 6.1 0.00 0.00 0.00 50 1012.4
20260506172402 50 322 1.7 6.1 0.00 0.00 0.00 49 1012.4
20260506172306 50 312 0.9 6.1 0.00 0.00 0.00 48 1012.5
20260506172202 50 308 0.9 6.1 0.00 0.00 0.00 48 1012.5
20260506172102 50 306 0.9 6.1 0.00 0.00 0.00 51 1012.5
20260506172002 50 322 0.9 6.1 0.00 0.00 0.00 48 1012.5
20260506171903 50 328 0.9 6.1 0.00 0.00 0.00 50 1012.5
20260506171802 50 350 0.9 4.3 0.00 0.00 0.00 51 1012.5
20260506171702 50 349 0.9 4.3 0.00 0.00 0.00 51 1012.5
20260506171602 50 346 0.9 4.3 0.00 0.00 0.00 49 1012.4
20260506171502 50 345 1.7 4.3 0.00 0.00 0.00 48 1012.5
20260506171402 50 345 1.7 4.3 0.00 0.00 0.00 48 1012.5
20260506171302 50 344 1.7 4.3 0.00 0.00 0.00 50 1012.4
20260506171202 50 340 1.7 4.3 0.00 0.00 0.00 48 1012.4
20260506171102 50 341 1.7 4.3 0.00 0.00 0.00 48 1012.4
20260506171002 50 345 1.7 4.3 0.00 0.00 0.00 51 1012.3
20260506170902 50 349 2.6 4.3 0.00 0.00 0.00 48 1012.3
20260506170802 50 347 1.7 4.3 0.00 0.00 0.00 47 1012.3
20260506170702 50 349 1.7 4.3 0.00 0.00 0.00 46 1012.3
20260506170602 50 353 2.6 4.3 0.00 0.00 0.00 47 1012.3
20260506170502 50 354 2.6 4.3 0.00 0.00 0.00 47 1012.3
20260506170402 50 358 2.6 4.3 0.00 0.00 0.00 46 1012.3
20260506170302 50 360 2.6 4.3 0.00 0.00 0.00 46 1012.3
20260506170202 50 4 2.6 4.3 0.00 0.00 0.00 47 1012.2
20260506170002 50 7 1.7 4.3 0.00 0.00 0.00 50 1012.2
20260506165902 50 8 1.7 3.5 0.00 0.00 0.00 50 1012.2
20260506165802 50 8 1.7 3.5 0.00 0.00 0.00 49 1012.2
20260506165702 50 7 1.7 3.5 0.00 0.00 0.00 50 1012.3
20260506165602 50 2 1.7 4.3 0.00 0.00 0.00 49 1012.3
20260506165502 50 5 1.7 4.3 0.00 0.00 0.00 49 1012.3
20260506165402 50 2 1.7 4.3 0.00 0.00 0.00 50 1012.3
20260506165305 50 1 1.7 4.3 0.00 0.00 0.00 48 1012.3
20260506165223 50 357 1.7 4.3 0.00 0.00 0.00 50 1012.3
20260506165102 50 349 1.7 4.3 0.00 0.00 0.00 52 1012.3
20260506165002 50 353 1.7 4.3 0.00 0.00 0.00 49 1012.3
20260506164902 50 352 1.7 4.3 0.00 0.01 0.00 50 1012.4
20260506164802 50 353 1.7 4.3 0.00 0.01 0.00 49 1012.4
20260506164702 50 354 1.7 4.3 0.00 0.01 0.00 49 1012.3
20260506164602 50 353 1.7 3.5 0.00 0.01 0.00 50 1012.3
20260506164502 50 347 1.7 3.5 0.00 0.01 0.00 51 1012.3
20260506164402 50 344 0.9 3.5 0.00 0.01 0.00 52 1012.3
20260506164302 50 342 0.9 3.5 0.00 0.01 0.00 50 1012.3
20260506164202 50 347 0.9 3.5 0.00 0.01 0.00 50 1012.3
20260506164102 50 353 0.9 4.3 0.00 0.01 0.00 50 1012.3
20260506164003 50 351 1.7 7.0 0.00 0.01 0.00 50 1012.3
20260506163902 50 352 1.7 7.0 0.00 0.01 0.00 50 1012.3
20260506163802 50 352 1.7 7.0 0.00 0.01 0.00 50 1012.3
20260506163702 50 351 1.7 7.0 0.00 0.01 0.00 51 1012.4
20260506163602 50 353 1.7 7.0 0.00 0.01 0.00 51 1012.3
20260506163502 50 353 1.7 7.0 0.00 0.01 0.00 51 1012.3
20260506163402 50 353 1.7 7.0 0.00 0.01 0.00 49 1012.2
20260506163302 50 351 1.7 7.0 0.00 0.01 0.00 48 1012.2
20260506163202 50 355 1.7 7.0 0.00 0.01 0.00 48 1012.2
20260506163102 50 355 1.7 7.0 0.00 0.01 0.00 48 1012.2
20260506163002 50 353 1.7 6.1 0.00 0.01 0.00 52 1012.2
20260506162902 50 353 0.9 5.2 0.00 0.01 0.00 53 1012.2
20260506162802 50 353 0.9 5.2 0.00 0.01 0.00 53 1012.2
20260506162702 50 357 1.7 5.2 0.00 0.01 0.00 52 1012.2
20260506162602 49 355 1.7 5.2 0.00 0.01 0.00 53 1012.1
20260506162502 50 357 1.7 5.2 0.00 0.01 0.00 52 1012.1
20260506162402 50 356 1.7 5.2 0.00 0.01 0.00 52 1012.1
20260506162306 50 356 1.7 5.2 0.00 0.01 0.00 52 1012.1
20260506162202 50 352 1.7 4.3 0.00 0.01 0.00 52 1012.1
20260506162102 50 348 1.7 4.3 0.00 0.01 0.00 51 1012.1
20260506162023 50 346 1.7 4.3 0.00 0.01 0.00 52 1012.1
20260506161902 50 346 1.7 4.3 0.00 0.01 0.00 52 1012.0
20260506161802 50 345 1.7 4.3 0.00 0.01 0.00 51 1012.2
20260506161723 50 341 1.7 4.3 0.00 0.01 0.00 49 1012.2
20260506161602 50 342 1.7 4.3 0.00 0.01 0.00 50 1012.3
20260506161502 50 339 1.7 4.3 0.00 0.01 0.00 49 1012.3
20260506161423 50 338 1.7 4.3 0.00 0.01 0.00 50 1012.3
20260506161302 50 333 1.7 4.3 0.00 0.01 0.00 50 1012.3
20260506161202 50 338 1.7 4.3 0.00 0.01 0.00 49 1012.3
20260506161102 50 334 1.7 4.3 0.00 0.01 0.00 49 1012.3
20260506161002 50 333 1.7 4.3 0.00 0.01 0.00 49 1012.3
20260506160902 50 333 1.7 4.3 0.00 0.01 0.00 50 1012.2
20260506160802 50 337 1.7 7.0 0.00 0.01 0.00 50 1012.2
20260506160702 50 340 1.7 7.0 0.00 0.01 0.00 51 1012.2
20260506160623 50 342 1.7 7.0 0.00 0.01 0.00 52 1012.2
20260506160523 50 342 1.7 7.0 0.00 0.01 0.00 53 1012.2
20260506160402 50 340 1.7 7.0 0.00 0.01 0.00 50 1012.2
20260506160302 50 338 1.7 7.0 0.00 0.01 0.00 49 1012.3
20260506160202 50 330 1.7 7.0 0.00 0.01 0.00 49 1012.3
20260506160002 50 334 0.9 7.0 0.00 0.01 0.00 50 1012.2
20260506155902 50 329 0.9 7.0 0.00 0.01 0.00 49 1012.2
20260506155802 50 322 0.9 7.0 0.00 0.01 0.00 52 1012.3
20260506155702 50 313 0.9 4.3 0.00 0.01 0.00 52 1012.3
20260506155602 50 308 0.9 4.3 0.00 0.01 0.00 52 1012.3
20260506155523 50 318 1.7 4.3 0.00 0.01 0.00 55 1012.3
20260506155402 50 335 1.7 4.3 0.00 0.01 0.00 54 1012.2
20260506155305 50 342 1.7 4.3 0.00 0.01 0.00 57 1012.3
20260506155202 50 345 1.7 4.3 0.00 0.01 0.00 53 1012.3
20260506155102 50 345 1.7 4.3 0.00 0.01 0.00 52 1012.2
20260506155002 50 348 1.7 4.3 0.00 0.01 0.00 52 1012.0
20260506154902 50 350 1.7 4.3 0.00 0.01 0.00 50 1012.0
20260506154802 50 351 1.7 5.2 0.00 0.01 0.00 52 1012.1
20260506154702 50 354 1.7 5.2 0.00 0.01 0.00 52 1012.0
20260506154602 50 357 1.7 5.2 0.00 0.01 0.00 53 1012.0
20260506154502 50 357 1.7 5.2 0.00 0.01 0.00 51 1012.0
20260506154402 50 353 1.7 5.2 0.00 0.01 0.00 53 1012.0
20260506154302 50 353 1.7 5.2 0.00 0.01 0.00 50 1012.0
20260506154202 50 353 1.7 5.2 0.00 0.01 0.00 52 1012.0
20260506154102 50 350 1.7 5.2 0.00 0.02 0.00 52 1012.0
20260506154002 50 349 1.7 5.2 0.00 0.02 0.00 52 1012.0
20260506153902 50 351 1.7 5.2 0.00 0.02 0.00 52 1012.0
20260506153802 50 351 1.7 4.3 0.00 0.02 0.00 53 1012.0
20260506153724 50 355 1.7 4.3 0.00 0.02 0.00 52 1012.0
20260506153602 50 352 1.7 4.3 0.00 0.02 0.00 52 1012.0
20260506153502 50 354 1.7 4.3 0.00 0.02 0.00 52 1012.0
20260506153402 50 354 1.7 4.3 0.00 0.02 0.00 49 1012.0
20260506153302 51 352 1.7 4.3 0.00 0.02 0.00 50 1012.0
20260506153223 51 350 1.7 4.3 0.00 0.02 0.00 49 1012.0
20260506153102 51 346 1.7 4.3 0.00 0.02 0.00 51 1011.9
20260506153002 51 341 1.7 4.3 0.00 0.02 0.00 52 1011.9
20260506152902 51 331 1.7 4.3 0.00 0.02 0.00 50 1011.8
20260506152802 52 324 1.7 4.3 0.00 0.02 0.00 50 1011.8
20260506152723 52 311 0.9 4.3 0.00 0.02 0.00 49 1011.9
20260506152623 52 316 0.9 4.3 0.00 0.02 0.00 50 1011.9
20260506152502 52 309 1.7 4.3 0.00 0.02 0.00 50 1011.8
20260506152402 52 302 1.7 4.3 0.00 0.02 0.00 52 1011.8
20260506152305 52 291 1.7 7.0 0.00 0.02 0.00 51 1011.8
20260506152202 52 289 1.7 7.0 0.00 0.02 0.00 50 1011.8
20260506152102 52 299 1.7 7.0 0.00 0.02 0.00 53 1011.8
20260506152002 52 293 1.7 7.0 0.00 0.02 0.00 53 1011.8
20260506151902 52 292 1.7 7.0 0.00 0.02 0.00 53 1011.8
20260506151802 52 293 1.7 7.0 0.00 0.02 0.00 51 1011.8
20260506151702 52 295 1.7 7.0 0.00 0.02 0.00 50 1011.8
20260506151602 52 284 1.7 7.0 0.00 0.02 0.00 50 1011.8
20260506151502 52 288 1.7 7.0 0.00 0.02 0.00 53 1011.8
20260506151402 52 309 1.7 7.0 0.00 0.02 0.00 51 1011.9
20260506151302 51 329 1.7 6.1 0.00 0.02 0.00 54 1011.9
20260506151202 51 339 2.6 6.1 0.00 0.02 0.00 52 1011.8
20260506151102 51 341 2.6 6.1 0.00 0.02 0.00 51 1011.7
20260506151002 51 345 1.7 6.1 0.00 0.02 0.00 52 1011.7
20260506150902 50 347 2.6 6.1 0.00 0.02 0.00 51 1011.8
20260506150823 50 348 2.6 6.1 0.00 0.02 0.00 52 1011.8
20260506150702 50 350 1.7 6.1 0.00 0.02 0.00 52 1011.7
20260506150623 50 351 1.7 6.1 0.00 0.02 0.00 51 1011.7
20260506150502 50 352 2.6 6.1 0.00 0.02 0.00 49 1011.8
20260506150402 50 352 2.6 6.1 0.00 0.02 0.00 50 1011.8
20260506150304 50 353 1.7 6.1 0.00 0.02 0.00 50 1011.8
20260506150202 50 352 1.7 6.1 0.00 0.02 0.00 51 1011.7
20260506150002 50 354 1.7 6.1 0.00 0.02 0.00 53 1011.8
20260506145902 50 356 1.7 6.1 0.00 0.02 0.00 52 1011.7
20260506145802 50 354 1.7 6.1 0.00 0.02 0.00 52 1011.8
20260506145702 50 355 1.7 6.1 0.00 0.02 0.00 50 1011.8
20260506145602 51 357 0.9 6.1 0.00 0.02 0.00 50 1011.7
20260506145502 51 355 0.9 6.1 0.00 0.02 0.00 52 1011.7
20260506145402 51 358 0.9 2.6 0.00 0.02 0.00 51 1011.6
20260506145305 51 360 0.9 2.6 0.00 0.02 0.00 51 1011.6
20260506145223 51 356 0.9 2.6 0.00 0.02 0.00 54 1011.6
20260506145102 51 316 0.9 2.6 0.00 0.02 0.00 52 1011.6
20260506145002 51 317 0.9 2.6 0.00 0.02 0.00 52 1011.6
20260506144902 51 278 0.9 2.6 0.00 0.02 0.00 53 1011.6
20260506144802 52 261 0.9 2.6 0.00 0.02 0.00 54 1011.7
20260506144702 52 284 0.9 2.6 0.00 0.02 0.00 56 1011.7
20260506144602 51 339 0.9 2.6 0.00 0.02 0.00 55 1011.7
20260506144502 51 12 0.9 3.5 0.00 0.02 0.00 54 1011.7
20260506144402 51 15 0.9 3.5 0.00 0.02 0.00 54 1011.7
20260506144323 51 21 0.9 3.5 0.00 0.02 0.00 53 1011.7
20260506144202 51 14 0.9 3.5 0.00 0.02 0.00 57 1011.7
20260506144102 51 15 0.9 3.5 0.00 0.02 0.00 58 1011.7
20260506144002 50 14 1.7 3.5 0.00 0.02 0.00 57 1011.6
20260506143902 50 16 1.7 3.5 0.00 0.02 0.00 56 1011.6
20260506143802 50 16 1.7 3.5 0.00 0.02 0.00 54 1011.6
20260506143723 50 15 1.7 3.5 0.00 0.02 0.00 55 1011.6
20260506143602 50 11 1.7 3.5 0.00 0.02 0.00 55 1011.6
20260506143502 50 7 0.9 3.5 0.00 0.02 0.00 56 1011.6
20260506143402 50 6 0.9 3.5 0.00 0.02 0.00 57 1011.6
20260506143302 50 5 0.9 3.5 0.00 0.02 0.00 56 1011.5
20260506143223 50 6 0.9 3.5 0.00 0.02 0.00 58 1011.5
20260506143102 50 8 0.9 3.5 0.00 0.02 0.00 58 1011.5
20260506143002 50 11 0.9 4.3 0.00 0.02 0.00 60 1011.4
20260506142902 50 9 1.7 4.3 0.00 0.02 0.00 58 1011.4
20260506142802 50 8 1.7 4.3 0.00 0.02 0.00 59 1011.4
20260506142702 50 8 1.7 4.3 0.00 0.02 0.00 57 1011.4
20260506142602 50 7 1.7 4.3 0.00 0.02 0.00 58 1011.4
20260506142502 50 6 1.7 4.3 0.00 0.02 0.00 58 1011.4
20260506142402 50 360 1.7 4.3 0.00 0.02 0.00 57 1011.4
20260506142305 50 357 1.7 4.3 0.00 0.02 0.00 56 1011.4
20260506142202 50 356 0.9 4.3 0.00 0.02 0.00 58 1011.4
20260506142102 50 355 0.9 4.3 0.00 0.02 0.00 56 1011.4
20260506142002 50 347 0.9 2.6 0.00 0.02 0.00 55 1011.4
20260506141902 50 339 0.9 2.6 0.00 0.02 0.00 54 1011.4
20260506141802 50 340 0.9 3.5 0.00 0.02 0.00 54 1011.4
20260506141702 50 340 0.9 3.5 0.00 0.02 0.00 54 1011.4
20260506141602 50 340 0.9 3.5 0.00 0.02 0.00 56 1011.4
20260506141502 50 339 0.9 3.5 0.00 0.02 0.00 59 1011.4
20260506141423 50 339 0.9 3.5 0.00 0.02 0.00 59 1011.4
20260506141302 50 340 0.9 4.3 0.00 0.02 0.00 59 1011.3
20260506141224 50 340 0.9 4.3 0.00 0.02 0.00 59 1011.3
20260506141102 50 341 0.9 4.3 0.00 0.02 0.00 56 1011.4
20260506141002 50 343 1.7 4.3 0.00 0.02 0.00 57 1011.3
20260506140902 50 344 1.7 4.3 0.00 0.02 0.00 56 1011.3
20260506140823 50 344 1.7 4.3 0.00 0.02 0.00 57 1011.3
20260506140702 49 342 1.7 4.3 0.00 0.02 0.00 57 1011.3
20260506140602 49 345 1.7 4.3 0.00 0.02 0.00 57 1011.3
20260506140502 49 349 1.7 4.3 0.00 0.02 0.00 55 1011.3
20260506140423 49 350 1.7 4.3 0.00 0.02 0.00 54 1011.3
20260506140302 49 353 0.9 3.5 0.00 0.02 0.00 56 1011.2
20260506140202 49 354 0.9 3.5 0.00 0.02 0.00 60 1011.2
20260506140123 49 355 0.9 3.5 0.00 0.02 0.00 60 1011.2
20260506140023 49 356 0.9 3.5 0.00 0.02 0.00 59 1011.2
20260506135902 49 355 0.9 3.5 0.00 0.02 0.00 63 1011.1
20260506135802 49 354 1.7 3.5 0.00 0.02 0.00 62 1011.1
20260506135702 49 352 1.7 3.5 0.00 0.02 0.00 61 1011.1
20260506135602 49 353 0.9 3.5 0.00 0.02 0.00 65 1011.1
20260506135502 49 350 1.7 3.5 0.00 0.02 0.00 65 1011.0
20260506135402 48 352 1.7 3.5 0.00 0.02 0.00 65 1011.0
20260506135305 48 351 1.7 5.2 0.00 0.02 0.00 64 1011.0
20260506135202 48 351 2.6 5.2 0.00 0.02 0.00 64 1011.0
20260506135102 48 353 2.6 5.2 0.00 0.02 0.00 65 1011.0
20260506135002 48 356 2.6 6.1 0.00 0.02 0.00 64 1011.0
20260506134923 48 358 2.6 6.1 0.00 0.02 0.00 64 1010.9
20260506134823 48 358 2.6 6.1 0.00 0.02 0.00 64 1010.9
20260506134702 48 360 1.7 6.1 0.00 0.02 0.00 65 1011.0
20260506134602 48 1 2.6 6.1 0.00 0.02 0.00 64 1011.0
20260506134502 48 1 1.7 6.1 0.00 0.02 0.00 64 1011.0
20260506134402 48 2 1.7 6.1 0.00 0.02 0.00 63 1011.0
20260506134302 48 3 1.7 6.1 0.00 0.02 0.00 62 1011.0
20260506134202 48 6 1.7 6.1 0.00 0.02 0.00 62 1011.0
20260506134102 48 10 1.7 6.1 0.00 0.02 0.00 62 1010.9
20260506134002 48 7 1.7 3.5 0.00 0.02 0.00 63 1010.9
20260506133902 48 6 1.7 3.5 0.00 0.02 0.00 65 1010.9
20260506133802 48 7 1.7 3.5 0.00 0.02 0.00 63 1010.9
20260506133702 48 6 1.7 3.5 0.00 0.02 0.00 63 1011.0
20260506133602 48 5 1.7 3.5 0.00 0.02 0.00 63 1011.0
20260506133502 49 5 1.7 3.5 0.00 0.02 0.00 63 1011.0
20260506133424 48 5 1.7 3.5 0.00 0.02 0.00 63 1011.0
20260506133302 48 4 1.7 3.5 0.00 0.02 0.00 62 1011.0
20260506133202 49 4 1.7 3.5 0.00 0.02 0.00 63 1011.0
20260506133102 49 360 0.9 3.5 0.00 0.02 0.00 64 1010.9
20260506133002 49 358 0.9 3.5 0.00 0.02 0.00 61 1010.9
20260506132902 49 354 0.9 3.5 0.00 0.02 0.00 62 1010.9
20260506132802 49 354 1.7 4.3 0.00 0.02 0.00 62 1010.9
20260506132702 49 353 0.9 4.3 0.00 0.02 0.00 62 1010.9
20260506132602 49 351 0.9 4.3 0.00 0.02 0.00 61 1010.8
20260506132502 49 348 0.9 4.3 0.00 0.02 0.00 62 1010.8
20260506132402 48 344 0.9 4.3 0.00 0.02 0.00 62 1010.8
20260506132305 48 343 0.9 4.3 0.00 0.02 0.00 61 1010.8
20260506132202 48 344 0.9 4.3 0.00 0.02 0.00 60 1010.8
20260506132102 48 346 0.9 4.3 0.00 0.02 0.00 60 1010.8
20260506132002 48 347 0.9 4.3 0.00 0.02 0.00 61 1010.7
20260506131902 48 347 0.9 4.3 0.00 0.02 0.00 60 1010.7
20260506131802 48 345 0.9 4.3 0.00 0.02 0.00 61 1010.8
20260506131703 48 345 0.9 4.3 0.00 0.02 0.00 62 1010.8
20260506131623 48 345 0.9 4.3 0.00 0.02 0.00 60 1010.7
20260506131502 48 349 0.9 4.3 0.00 0.02 0.00 60 1010.8
20260506131402 48 349 0.9 4.3 0.00 0.02 0.00 60 1010.8
20260506131323 48 348 1.7 4.3 0.00 0.02 0.00 60 1010.8
20260506131202 48 348 1.7 4.3 0.00 0.02 0.00 60 1010.8
20260506131124 48 346 1.7 4.3 0.00 0.02 0.00 59 1010.7
20260506131023 48 343 1.7 3.5 0.00 0.02 0.00 61 1010.7
20260506130902 47 353 1.7 4.3 0.00 0.02 0.00 61 1010.7
20260506130823 47 355 1.7 4.3 0.00 0.02 0.00 61 1010.7
20260506130702 47 354 1.7 4.3 0.00 0.02 0.00 61 1010.7
20260506130602 47 355 1.7 4.3 0.00 0.02 0.00 59 1010.6
20260506130502 47 354 1.7 4.3 0.00 0.02 0.00 60 1010.6
20260506130423 47 354 1.7 4.3 0.00 0.02 0.00 60 1010.6
20260506130302 47 358 0.9 4.3 0.00 0.02 0.00 60 1010.6
20260506130202 47 360 0.9 4.3 0.00 0.02 0.00 61 1010.5
20260506130002 47 6 0.9 4.3 0.00 0.02 0.00 60 1010.4
20260506125902 47 360 0.9 2.6 0.00 0.02 0.00 60 1010.4
20260506125802 47 1 0.9 2.6 0.00 0.02 0.00 61 1010.4
20260506125702 47 7 0.9 2.6 0.00 0.02 0.00 60 1010.4
20260506125602 47 6 0.9 2.6 0.00 0.02 0.00 59 1010.4
20260506125523 47 7 0.9 2.6 0.00 0.02 0.00 61 1010.4
20260506125403 47 7 0.9 2.6 0.00 0.02 0.00 61 1010.4
20260506125323 47 7 0.9 2.6 0.00 0.02 0.00 62 1010.4
20260506125223 47 7 0.9 2.6 0.00 0.02 0.00 62 1010.4
20260506125123 47 7 0.9 2.6 0.00 0.02 0.00 61 1010.5
20260506125002 47 5 0.9 2.6 0.00 0.02 0.00 61 1010.5
20260506124902 47 1 0.9 2.6 0.00 0.02 0.00 61 1010.5
20260506124802 47 357 0.9 2.6 0.00 0.02 0.00 61 1010.4
20260506124702 46 349 0.9 2.6 0.00 0.02 0.00 62 1010.5
20260506124602 46 346 0.9 2.6 0.00 0.02 0.00 61 1010.5
20260506124502 46 342 0.9 2.6 0.00 0.02 0.00 62 1010.5
20260506124402 46 337 0.9 2.6 0.00 0.02 0.00 62 1010.4
20260506124302 46 332 0.9 2.6 0.00 0.02 0.00 62 1010.4
20260506124202 46 332 0.9 2.6 0.00 0.02 0.00 62 1010.3
20260506124102 46 332 0.9 2.6 0.00 0.02 0.00 61 1010.3
20260506124002 46 332 0.9 2.6 0.00 0.02 0.00 61 1010.3
20260506123923 46 328 0.9 2.6 0.00 0.02 0.00 61 1010.3
20260506123802 46 314 0.0 1.7 0.00 0.02 0.00 60 1010.2
20260506123723 46 314 0.0 1.7 0.00 0.02 0.00 61 1010.2
20260506123602 46 299 0.0 1.7 0.00 0.02 0.00 61 1010.2
20260506123502 46 276 0.0 1.7 0.00 0.02 0.00 60 1010.2
20260506123402 46 262 0.0 1.7 0.00 0.02 0.00 64 1010.2
20260506123302 46 231 0.0 0.9 0.00 0.02 0.00 64 1010.2
20260506123202 46 231 0.0 0.9 0.00 0.02 0.00 62 1010.1
20260506123123 46 231 0.0 0.9 0.00 0.02 0.00 62 1010.1
20260506123023 46 0 0.0 0.0 0.00 0.02 0.00 61 1010.1
20260506122902 46 0 0.0 0.0 0.00 0.02 0.00 62 1010.0
20260506122802 46 231 0.0 0.9 0.00 0.02 0.00 63 1010.0
20260506122702 46 231 0.0 0.9 0.00 0.02 0.00 63 1010.0
20260506122602 46 231 0.0 0.9 0.00 0.02 0.00 64 1010.0
20260506122523 46 230 0.0 0.9 0.00 0.02 0.00 65 1010.0
20260506122402 45 230 0.0 0.9 0.00 0.02 0.00 65 1010.0
20260506122305 45 230 0.0 0.9 0.00 0.02 0.00 63 1010.0
20260506122202 45 230 0.0 0.9 0.00 0.02 0.00 64 1010.0
20260506122102 45 241 0.0 0.9 0.00 0.02 0.00 64 1010.0
20260506122023 45 241 0.0 0.9 0.00 0.02 0.00 63 1010.0
20260506121902 45 241 0.0 0.9 0.00 0.02 0.00 64 1010.0
20260506121802 45 270 0.0 0.9 0.00 0.02 0.00 65 1010.0
20260506121723 44 270 0.0 0.9 0.00 0.02 0.00 65 1010.0
20260506121623 44 270 0.0 0.9 0.00 0.02 0.00 66 1010.0
20260506121502 44 349 0.0 0.9 0.00 0.02 0.00 65 1010.1
20260506121402 44 349 0.0 0.9 0.00 0.02 0.00 64 1010.0
20260506121302 44 349 0.0 0.9 0.00 0.02 0.00 65 1010.0
20260506121223 44 349 0.0 0.9 0.00 0.02 0.00 65 1010.0
20260506121123 44 0 0.0 0.0 0.00 0.02 0.00 66 1010.0
20260506121002 44 0 0.0 0.0 0.00 0.02 0.00 65 1010.0
20260506120902 44 0 0.0 0.0 0.00 0.02 0.00 66 1010.0
20260506120802 44 0 0.0 0.0 0.00 0.02 0.00 66 1009.9
20260506120702 44 0 0.0 0.0 0.00 0.02 0.00 65 1009.9
20260506120602 44 0 0.0 0.0 0.00 0.02 0.00 66 1009.9
20260506120523 44 0 0.0 0.0 0.00 0.02 0.00 67 1009.9
20260506120402 43 0 0.0 0.0 0.00 0.02 0.00 67 1009.8
20260506120302 43 0 0.0 0.0 0.00 0.02 0.00 68 1009.9
20260506120202 43 0 0.0 0.0 0.00 0.02 0.00 69 1009.9
20260506120002 43 0 0.0 0.0 0.00 0.02 0.00 68 1009.9
20260506115923 43 0 0.0 0.0 0.00 0.02 0.00 67 1009.9
20260506115802 43 0 0.0 0.0 0.00 0.02 0.00 68 1009.9
20260506115723 43 0 0.0 0.0 0.00 0.02 0.00 69 1009.9
20260506115602 43 0 0.0 0.0 0.00 0.02 0.00 68 1009.9
20260506115502 43 0 0.0 0.0 0.00 0.02 0.00 68 1009.9
20260506115423 43 0 0.0 0.0 0.00 0.02 0.00 69 1009.9
20260506115306 43 0 0.0 0.0 0.00 0.02 0.00 68 1009.8
20260506115202 43 0 0.0 0.0 0.00 0.02 0.00 68 1009.8
20260506115102 43 0 0.0 0.0 0.00 0.02 0.00 70 1009.8
20260506115002 43 0 0.0 0.0 0.00 0.02 0.00 69 1009.8
20260506114902 43 352 0.0 1.7 0.00 0.02 0.00 69 1009.8
20260506114802 43 355 0.0 1.7 0.00 0.02 0.00 69 1009.8
20260506114702 43 355 0.0 1.7 0.00 0.02 0.00 70 1009.8
20260506114602 43 358 0.0 1.7 0.00 0.02 0.00 70 1009.8
20260506114502 42 358 0.0 1.7 0.00 0.02 0.00 69 1009.8
20260506114402 42 358 0.0 1.7 0.00 0.02 0.00 68 1009.8
20260506114323 42 359 0.0 1.7 0.00 0.02 0.00 68 1009.8
20260506114202 42 359 0.0 1.7 0.00 0.02 0.00 68 1009.8
20260506114123 42 359 0.0 1.7 0.00 0.02 0.00 68 1009.8
20260506114023 42 359 0.0 1.7 0.00 0.02 0.00 69 1009.8
20260506113923 42 360 0.0 1.7 0.00 0.02 0.00 71 1009.8
20260506113802 42 6 0.0 0.9 0.00 0.02 0.00 72 1009.9
20260506113703 42 6 0.0 0.9 0.00 0.02 0.00 72 1009.8
20260506113602 42 6 0.0 0.9 0.00 0.02 0.00 72 1009.8
20260506113523 42 6 0.0 0.9 0.00 0.02 0.00 72 1009.7
20260506113402 41 6 0.0 0.9 0.00 0.02 0.00 75 1009.7
20260506113302 41 0 0.0 0.0 0.00 0.02 0.00 77 1009.7
20260506113202 41 0 0.0 0.0 0.00 0.02 0.00 76 1009.6
20260506113102 41 0 0.0 0.0 0.00 0.02 0.00 76 1009.5
20260506113002 41 0 0.0 0.0 0.00 0.02 0.00 76 1009.5
20260506112923 41 0 0.0 0.0 0.00 0.02 0.00 76 1009.5
20260506112802 41 0 0.0 0.0 0.00 0.02 0.00 76 1009.5
20260506112702 41 0 0.0 0.0 0.00 0.02 0.00 75 1009.5
20260506112623 41 0 0.0 0.0 0.00 0.02 0.00 75 1009.5
20260506112502 40 0 0.0 0.0 0.00 0.02 0.00 75 1009.4
20260506112402 41 0 0.0 0.0 0.00 0.02 0.00 77 1009.4
20260506112305 40 0 0.0 0.0 0.00 0.02 0.00 77 1009.4
20260506112223 40 0 0.0 0.0 0.00 0.02 0.00 77 1009.3
20260506112102 40 0 0.0 0.0 0.00 0.02 0.00 76 1009.4
20260506112023 40 0 0.0 0.0 0.00 0.02 0.00 76 1009.4
20260506111902 40 0 0.0 0.0 0.00 0.02 0.00 76 1009.4
20260506111803 40 0 0.0 0.0 0.00 0.02 0.00 77 1009.4
20260506111702 40 0 0.0 0.0 0.00 0.02 0.00 76 1009.4
20260506111602 40 0 0.0 0.0 0.00 0.02 0.00 75 1009.4
20260506111502 40 0 0.0 0.0 0.00 0.02 0.00 75 1009.4
20260506111402 40 0 0.0 0.0 0.00 0.02 0.00 75 1009.4
20260506111302 40 0 0.0 0.0 0.00 0.02 0.00 76 1009.4
20260506111202 40 0 0.0 0.0 0.00 0.02 0.00 76 1009.4
20260506111102 40 0 0.0 0.0 0.00 0.02 0.00 76 1009.4
20260506111002 40 0 0.0 0.0 0.00 0.02 0.00 76 1009.4
20260506110902 41 0 0.0 0.0 0.00 0.02 0.00 76 1009.3
20260506110802 41 0 0.0 0.0 0.00 0.02 0.00 76 1009.3
20260506110702 41 0 0.0 0.0 0.00 0.02 0.00 77 1009.3
20260506110623 41 0 0.0 0.0 0.00 0.02 0.00 77 1009.4
20260506110523 41 0 0.0 0.0 0.00 0.02 0.00 77 1009.4
20260506110402 41 0 0.0 0.0 0.00 0.02 0.00 77 1009.3
20260506110302 41 0 0.0 0.0 0.00 0.02 0.00 77 1009.3
20260506110202 41 0 0.0 0.0 0.00 0.02 0.00 77 1009.3
20260506110023 41 0 0.0 0.0 0.00 0.02 0.00 76 1009.3
20260506105923 41 0 0.0 0.0 0.00 0.02 0.00 76 1009.3
20260506105802 41 0 0.0 0.0 0.00 0.02 0.00 75 1009.2
20260506105702 41 0 0.0 0.0 0.00 0.02 0.00 75 1009.2
20260506105602 42 0 0.0 0.0 0.00 0.02 0.00 74 1009.2
20260506105502 41 0 0.0 0.0 0.00 0.02 0.00 73 1009.1
20260506105402 42 0 0.0 0.0 0.00 0.02 0.00 74 1009.1
20260506105305 42 0 0.0 0.0 0.00 0.02 0.00 73 1009.2
20260506105202 42 0 0.0 0.0 0.00 0.02 0.00 73 1009.2
20260506105102 42 0 0.0 0.0 0.00 0.02 0.00 73 1009.1
20260506105002 42 0 0.0 0.0 0.00 0.02 0.00 73 1009.1
20260506104902 42 0 0.0 0.0 0.00 0.02 0.00 73 1009.1
20260506104802 42 0 0.0 0.0 0.00 0.02 0.00 73 1009.1
20260506104702 42 0 0.0 0.0 0.00 0.02 0.00 72 1009.1
20260506104602 42 0 0.0 0.0 0.00 0.02 0.00 72 1009.0
20260506104502 42 0 0.0 0.0 0.00 0.02 0.00 72 1009.0
20260506104402 42 0 0.0 0.0 0.00 0.02 0.00 72 1009.0
20260506104302 42 0 0.0 0.0 0.00 0.02 0.00 72 1009.0
20260506104202 42 0 0.0 0.0 0.00 0.02 0.00 72 1009.0
20260506104123 42 0 0.0 0.0 0.00 0.02 0.00 72 1009.0
20260506104023 42 0 0.0 0.0 0.00 0.02 0.00 72 1009.0
20260506103902 43 0 0.0 0.0 0.00 0.02 0.00 71 1009.0
20260506103802 43 0 0.0 0.0 0.00 0.02 0.00 71 1009.0
20260506103702 43 0 0.0 0.0 0.00 0.02 0.00 70 1009.0
20260506103602 43 0 0.0 0.0 0.00 0.02 0.00 71 1009.0
20260506103502 43 0 0.0 0.0 0.00 0.02 0.00 70 1009.0
20260506103402 43 0 0.0 0.0 0.00 0.02 0.00 69 1009.0
20260506103302 43 0 0.0 0.0 0.00 0.02 0.00 68 1008.9
20260506103202 43 0 0.0 0.0 0.00 0.02 0.00 67 1009.0
20260506103102 43 0 0.0 0.0 0.00 0.02 0.00 67 1009.0
20260506103023 43 0 0.0 0.0 0.00 0.02 0.00 67 1008.9
20260506102902 43 0 0.0 0.0 0.00 0.02 0.00 67 1008.9
20260506102802 43 0 0.0 0.0 0.00 0.02 0.00 66 1008.9
20260506102702 44 6 0.0 0.9 0.00 0.02 0.00 64 1008.8
20260506102623 44 6 0.0 0.9 0.00 0.02 0.00 66 1008.8
20260506102502 44 6 0.0 0.9 0.00 0.02 0.00 64 1008.8
20260506102423 44 6 0.0 0.9 0.00 0.02 0.00 64 1008.8
20260506102323 44 6 0.0 0.9 0.00 0.02 0.00 64 1008.8
20260506102223 44 6 0.0 0.9 0.00 0.02 0.00 64 1008.7
20260506102102 44 6 0.0 0.9 0.00 0.02 0.00 65 1008.7
20260506102002 44 6 0.0 0.9 0.00 0.02 0.00 64 1008.8
20260506101923 44 6 0.0 0.9 0.00 0.02 0.00 64 1008.8
20260506101802 44 6 0.0 0.9 0.00 0.02 0.00 65 1008.8
20260506101702 44 0 0.0 0.0 0.00 0.02 0.00 63 1008.9
20260506101602 44 0 0.0 0.0 0.00 0.02 0.00 63 1008.9
20260506101502 44 0 0.0 0.0 0.00 0.02 0.00 62 1008.9
20260506101402 44 0 0.0 0.0 0.00 0.02 0.00 62 1009.0
20260506101302 44 0 0.0 0.0 0.00 0.02 0.00 62 1009.0
20260506101223 44 0 0.0 0.0 0.00 0.02 0.00 62 1009.0
20260506101102 44 0 0.0 0.0 0.00 0.02 0.00 63 1009.0
20260506101002 44 0 0.0 0.0 0.00 0.02 0.00 63 1009.0
20260506100902 44 6 0.0 0.9 0.00 0.02 0.00 63 1008.9
20260506100802 45 6 0.0 0.9 0.00 0.02 0.00 64 1008.9
20260506100723 45 6 0.0 0.9 0.00 0.02 0.00 64 1008.9
20260506100602 45 6 0.0 0.9 0.00 0.02 0.00 62 1008.9
20260506100502 45 6 0.0 0.9 0.00 0.02 0.00 62 1008.9
20260506100423 45 6 0.0 0.9 0.00 0.02 0.00 61 1008.9
20260506100302 45 6 0.0 0.9 0.00 0.02 0.00 62 1008.9
20260506100202 45 6 0.0 0.9 0.00 0.02 0.00 61 1008.9
20260506100002 45 6 0.0 0.9 0.00 0.02 0.00 62 1008.7
20260506095902 45 6 0.0 0.9 0.00 0.02 0.00 62 1008.7
20260506095802 45 6 0.0 0.9 0.00 0.02 0.00 62 1008.7
20260506095702 45 12 0.0 0.9 0.00 0.02 0.00 62 1008.7
20260506095602 45 6 0.0 0.9 0.00 0.02 0.00 63 1008.8
20260506095523 45 6 0.0 0.9 0.00 0.02 0.00 63 1008.8
20260506095402 45 6 0.0 0.9 0.00 0.02 0.00 61 1008.8
20260506095305 45 6 0.0 0.9 0.00 0.02 0.00 61 1008.8
20260506095202 45 6 0.0 0.9 0.00 0.02 0.00 62 1008.8
20260506095123 45 6 0.0 0.9 0.00 0.02 0.00 62 1008.7
20260506095023 45 6 0.0 0.9 0.00 0.02 0.00 62 1008.7
20260506094923 45 6 0.0 0.9 0.00 0.02 0.00 62 1008.7
20260506094802 45 6 0.0 0.9 0.00 0.02 0.00 61 1008.5
20260506094723 45 1 0.0 0.9 0.00 0.02 0.00 62 1008.5
20260506094602 45 0 0.0 0.0 0.00 0.02 0.00 62 1008.5
20260506094502 45 0 0.0 0.0 0.00 0.02 0.00 61 1008.5
20260506094402 45 0 0.0 0.0 0.00 0.02 0.00 60 1008.5
20260506094302 45 0 0.0 0.0 0.00 0.02 0.00 60 1008.5
20260506094202 45 0 0.0 0.0 0.00 0.02 0.00 60 1008.5
20260506094102 45 0 0.0 0.0 0.00 0.02 0.00 61 1008.4
20260506094002 45 0 0.0 0.0 0.00 0.02 0.00 61 1008.4
20260506093902 45 0 0.0 0.0 0.00 0.02 0.00 61 1008.4
20260506093802 45 0 0.0 0.0 0.00 0.02 0.00 61 1008.3
20260506093702 45 0 0.0 0.0 0.00 0.02 0.00 61 1008.3
20260506093623 45 0 0.0 0.0 0.00 0.02 0.00 61 1008.3
20260506093502 45 0 0.0 0.0 0.00 0.02 0.00 60 1008.2
20260506093423 45 0 0.0 0.0 0.00 0.02 0.00 61 1008.2
20260506093302 45 0 0.0 0.0 0.00 0.02 0.00 60 1008.2
20260506093202 45 1 0.0 0.9 0.00 0.02 0.00 60 1008.2
20260506093102 45 1 0.0 0.9 0.00 0.02 0.00 61 1008.2
20260506093023 45 1 0.0 0.9 0.00 0.02 0.00 61 1008.2
20260506092902 45 1 0.0 0.9 0.00 0.02 0.00 62 1008.3
20260506092802 45 1 0.0 0.9 0.00 0.02 0.00 61 1008.3
20260506092723 45 1 0.0 0.9 0.00 0.02 0.00 60 1008.3
20260506092602 45 1 0.0 0.9 0.00 0.02 0.00 60 1008.2
20260506092502 45 1 0.0 1.7 0.00 0.02 0.00 60 1008.1
20260506092402 45 360 0.0 1.7 0.00 0.02 0.00 60 1008.1
20260506092305 45 360 0.0 1.7 0.00 0.02 0.00 60 1008.1
20260506092202 45 360 0.0 1.7 0.00 0.02 0.00 60 1008.1
20260506092123 45 360 0.0 1.7 0.00 0.02 0.00 60 1008.1
20260506092023 45 360 0.0 1.7 0.00 0.02 0.00 60 1008.1
20260506091902 45 360 0.0 1.7 0.00 0.02 0.00 61 1008.1
20260506091823 45 360 0.0 1.7 0.00 0.02 0.00 61 1008.1
20260506091702 45 7 0.0 1.7 0.00 0.02 0.00 61 1008.1
20260506091602 45 6 0.0 1.7 0.00 0.02 0.00 60 1008.1
20260506091502 45 6 0.0 1.7 0.00 0.02 0.00 61 1008.1
20260506091423 45 8 0.0 1.7 0.00 0.02 0.00 61 1008.1
20260506091323 45 8 0.0 1.7 0.00 0.02 0.00 60 1008.2
20260506091202 45 6 0.0 1.7 0.00 0.02 0.00 60 1008.3
20260506091123 45 7 0.0 1.7 0.00 0.02 0.00 62 1008.3
20260506091002 45 5 0.0 1.7 0.00 0.02 0.00 62 1008.3
20260506090902 45 4 0.0 1.7 0.00 0.02 0.00 61 1008.3
20260506090802 45 4 0.0 1.7 0.00 0.02 0.00 60 1008.3
20260506090702 45 354 0.0 0.9 0.00 0.02 0.00 60 1008.2
20260506090602 45 354 0.0 0.9 0.00 0.02 0.00 61 1008.2
20260506090502 45 356 0.0 0.9 0.00 0.02 0.00 61 1008.3
20260506090402 45 356 0.0 0.9 0.00 0.02 0.00 60 1008.3
20260506090302 45 356 0.0 0.9 0.00 0.02 0.00 60 1008.3
20260506090202 45 357 0.0 0.9 0.00 0.02 0.00 60 1008.3
20260506090002 45 359 0.0 0.9 0.00 0.02 0.00 60 1008.4
20260506085902 45 360 0.0 0.9 0.00 0.02 0.00 61 1008.3
20260506085802 45 2 0.0 1.7 0.00 0.02 0.00 61 1008.3
20260506085702 45 4 0.0 1.7 0.00 0.02 0.00 61 1008.2
20260506085602 45 358 0.0 1.7 0.00 0.02 0.00 61 1008.2
20260506085502 45 348 0.0 1.7 0.00 0.02 0.00 60 1008.2
20260506085402 45 345 0.0 1.7 0.00 0.02 0.00 61 1008.1
20260506085305 45 344 0.0 1.7 0.00 0.02 0.00 60 1008.1
20260506085202 45 343 0.0 1.7 0.00 0.02 0.00 60 1008.1
20260506085102 45 343 0.0 1.7 0.00 0.02 0.00 61 1008.1
20260506085002 45 343 0.0 1.7 0.00 0.02 0.00 60 1008.1
20260506084902 45 342 0.0 1.7 0.00 0.02 0.00 60 1008.1
20260506084802 46 338 0.0 0.9 0.00 0.02 0.00 61 1008.1
20260506084702 46 338 0.0 0.9 0.00 0.02 0.00 61 1008.0
20260506084602 46 337 0.0 0.9 0.00 0.02 0.00 59 1007.9
20260506084502 46 336 0.0 0.9 0.00 0.02 0.00 60 1007.9
20260506084424 46 336 0.0 0.9 0.00 0.02 0.00 60 1008.1
20260506084302 46 335 0.0 0.9 0.00 0.02 0.00 62 1008.1
20260506084202 46 335 0.0 0.9 0.00 0.02 0.00 61 1008.0
20260506084102 46 335 0.0 0.9 0.00 0.02 0.00 60 1008.0
20260506084002 46 335 0.0 0.9 0.00 0.02 0.00 60 1008.0
20260506083902 46 335 0.0 0.9 0.00 0.02 0.00 59 1008.0
20260506083802 46 335 0.0 0.9 0.00 0.02 0.00 60 1008.0
20260506083702 46 335 0.0 0.9 0.00 0.02 0.00 60 1007.9
20260506083602 46 335 0.0 0.9 0.00 0.02 0.00 60 1007.9
20260506083502 46 335 0.0 0.9 0.00 0.02 0.00 61 1007.9
20260506083402 46 335 0.0 0.9 0.00 0.02 0.00 59 1007.9
20260506083302 46 335 0.0 0.9 0.00 0.02 0.00 59 1008.0
20260506083202 46 335 0.0 0.9 0.00 0.02 0.00 60 1008.0
20260506083123 46 335 0.0 0.9 0.00 0.02 0.00 60 1008.1
20260506083002 46 335 0.0 0.9 0.00 0.02 0.00 60 1008.1
20260506082902 46 335 0.0 0.9 0.00 0.02 0.00 61 1008.1
20260506082823 46 340 0.0 1.7 0.00 0.02 0.00 60 1008.1
20260506082702 46 348 0.0 1.7 0.00 0.02 0.00 61 1008.1
20260506082602 46 348 0.0 1.7 0.00 0.02 0.00 61 1008.1
20260506082502 46 348 0.0 1.7 0.00 0.02 0.00 60 1008.1
20260506082402 46 348 0.0 1.7 0.00 0.02 0.00 60 1008.1
20260506082304 46 348 0.0 1.7 0.00 0.02 0.00 59 1008.1
20260506082202 46 350 0.0 1.7 0.00 0.02 0.00 60 1008.1
20260506082102 46 350 0.0 1.7 0.00 0.02 0.00 59 1008.1
20260506082002 46 355 0.0 1.7 0.00 0.02 0.00 61 1008.1
20260506081923 46 356 0.0 1.7 0.00 0.02 0.00 60 1008.0
20260506081802 46 360 0.0 0.9 0.00 0.02 0.00 59 1008.1
20260506081702 46 357 0.0 0.9 0.00 0.02 0.00 61 1008.1
20260506081602 46 357 0.0 0.9 0.00 0.02 0.00 61 1008.1
20260506081502 46 357 0.0 0.9 0.00 0.02 0.00 60 1008.1
20260506081423 46 357 0.0 0.9 0.00 0.02 0.00 60 1008.1
20260506081302 46 354 0.0 0.9 0.00 0.02 0.00 60 1008.0
20260506081202 46 353 0.0 0.9 0.00 0.02 0.00 59 1008.0
20260506081102 46 353 0.0 0.9 0.00 0.02 0.00 60 1008.0
20260506081023 46 353 0.0 0.9 0.00 0.02 0.00 60 1008.0
20260506080903 46 353 0.0 0.9 0.00 0.02 0.00 60 1008.0
20260506080802 46 354 0.0 0.9 0.00 0.02 0.00 60 1008.1
20260506080702 46 354 0.0 0.9 0.00 0.02 0.00 60 1008.1
20260506080623 46 353 0.0 0.9 0.00 0.02 0.00 60 1008.1
20260506080502 46 353 0.0 0.9 0.00 0.02 0.00 60 1008.1
20260506080423 46 355 0.0 0.9 0.00 0.02 0.00 60 1008.1
20260506080302 46 357 0.0 0.9 0.00 0.02 0.00 59 1008.2
20260506080202 46 359 0.0 0.9 0.00 0.02 0.00 60 1008.2
20260506073502 46 0 0.0 0.0 0.00 0.02 0.00 59 1008.1
20260506073402 46 0 0.0 0.0 0.00 0.02 0.00 60 1008.1
20260506073323 46 0 0.0 0.0 0.00 0.02 0.00 60 1008.1
20260506073202 46 0 0.0 0.0 0.00 0.02 0.00 60 1008.1
20260506073102 46 0 0.0 0.0 0.00 0.02 0.00 60 1008.1
20260506073002 46 0 0.0 0.0 0.00 0.02 0.00 60 1008.1
20260506072902 46 0 0.0 0.0 0.00 0.02 0.00 61 1008.1
20260506072802 46 0 0.0 0.0 0.00 0.02 0.00 60 1008.1
20260506072702 46 0 0.0 0.0 0.00 0.02 0.00 60 1008.2
20260506072602 46 0 0.0 0.0 0.00 0.02 0.00 59 1008.2
20260506072502 46 0 0.0 0.0 0.00 0.02 0.00 60 1008.2
20260506072402 46 359 0.0 0.9 0.00 0.02 0.00 59 1008.1
20260506072323 46 359 0.0 0.9 0.00 0.02 0.00 59 1008.1
20260506072202 46 359 0.0 0.9 0.00 0.02 0.00 61 1008.1
20260506072102 46 359 0.0 0.9 0.00 0.02 0.00 61 1008.1
20260506072002 46 359 0.0 0.9 0.00 0.02 0.00 59 1008.1
20260506071902 46 359 0.0 0.9 0.00 0.02 0.00 60 1008.1
20260506071802 46 358 0.0 0.9 0.00 0.02 0.00 60 1008.1
20260506071702 46 357 0.0 0.9 0.00 0.02 0.00 60 1008.0
20260506071602 46 356 0.0 0.9 0.00 0.02 0.00 60 1008.0
20260506071502 46 356 0.0 0.9 0.00 0.02 0.00 60 1008.0
20260506071402 46 356 0.0 0.9 0.00 0.02 0.00 59 1008.0
20260506071302 46 356 0.0 0.9 0.00 0.02 0.00 59 1008.0
20260506071202 46 354 0.0 0.9 0.00 0.02 0.00 59 1008.0
20260506071102 46 354 0.0 0.9 0.00 0.02 0.00 60 1007.9
20260506071002 47 354 0.0 0.9 0.00 0.02 0.00 60 1007.9
20260506070923 46 354 0.0 0.9 0.00 0.02 0.00 60 1007.9
20260506070802 47 354 0.0 0.9 0.00 0.02 0.00 59 1008.0
20260506070702 47 354 0.0 0.9 0.00 0.02 0.00 59 1008.0
20260506070623 47 0 0.0 0.0 0.00 0.02 0.00 60 1008.1
20260506070502 47 0 0.0 0.0 0.00 0.02 0.00 59 1008.1
20260506070402 47 354 0.0 0.9 0.00 0.02 0.00 61 1008.0
20260506070302 47 354 0.0 0.9 0.00 0.02 0.00 60 1008.0
20260506070202 47 354 0.0 0.9 0.00 0.02 0.00 61 1008.0
20260506070123 47 354 0.0 0.9 0.00 0.02 0.00 60 1008.0
20260506062502 47 4 0.0 1.7 0.00 0.02 0.00 60 1008.1
20260506062402 47 4 0.0 1.7 0.00 0.02 0.00 60 1008.1
20260506062323 47 4 0.0 1.7 0.00 0.02 0.00 60 1008.1
20260506062202 47 4 0.0 1.7 0.00 0.02 0.00 61 1008.1
20260506062102 47 4 0.0 1.7 0.00 0.02 0.00 61 1008.1
20260506062023 47 4 0.0 1.7 0.00 0.02 0.00 59 1008.1
20260506061902 47 357 0.0 1.7 0.00 0.02 0.00 62 1008.2
20260506061802 47 352 0.0 1.7 0.00 0.02 0.00 61 1008.2
20260506061723 47 349 0.0 1.7 0.00 0.02 0.00 60 1008.3
20260506061602 47 348 0.0 1.7 0.00 0.02 0.00 60 1008.3
20260506061502 47 348 0.0 1.7 0.00 0.02 0.00 60 1008.2
20260506061402 47 345 0.0 1.7 0.00 0.02 0.00 60 1008.2
20260506061302 47 345 0.0 1.7 0.00 0.02 0.00 60 1008.2
20260506061202 47 345 0.0 1.7 0.00 0.02 0.00 61 1008.2
20260506061123 47 343 0.0 1.7 0.00 0.02 0.00 60 1008.2
20260506061002 47 337 0.0 1.7 0.00 0.02 0.00 59 1008.3
20260506060902 47 207 0.0 0.9 0.00 0.02 0.00 60 1008.4
20260506060802 47 207 0.0 0.9 0.00 0.02 0.00 60 1008.4
20260506060702 47 207 0.0 0.9 0.00 0.02 0.00 61 1008.3
20260506060602 47 207 0.0 0.9 0.00 0.02 0.00 61 1008.3
20260506060502 47 207 0.0 0.9 0.00 0.02 0.00 62 1008.2
20260506060402 47 207 0.0 0.9 0.00 0.02 0.00 63 1008.3
20260506060302 47 207 0.0 0.9 0.00 0.02 0.00 62 1008.3
20260506060202 47 207 0.0 0.9 0.00 0.02 0.00 62 1008.3
20260506051402 47 207 0.0 0.9 0.00 0.02 0.00 62 1008.1
20260506051302 47 207 0.0 0.9 0.00 0.02 0.00 63 1008.0
20260506051202 47 207 0.0 0.9 0.00 0.02 0.00 63 1007.9
20260506051102 47 207 0.0 0.9 0.00 0.02 0.00 63 1007.9
20260506051002 47 207 0.0 0.9 0.00 0.02 0.00 62 1007.9
20260506050902 47 207 0.0 0.9 0.00 0.02 0.00 66 1007.9
20260506050802 47 207 0.0 0.9 0.00 0.02 0.00 64 1007.9
20260506050702 47 0 0.0 0.0 0.00 0.02 0.00 64 1007.9
20260506050602 47 0 0.0 0.0 0.00 0.02 0.00 63 1007.9
20260506050502 47 0 0.0 0.0 0.00 0.02 0.00 62 1007.9
20260506050423 47 0 0.0 0.0 0.00 0.02 0.00 62 1007.9
20260506050302 47 0 0.0 0.0 0.00 0.02 0.00 65 1008.1
20260506050202 47 0 0.0 0.0 0.00 0.02 0.00 65 1008.2
20260506045102 48 0 0.0 0.0 0.00 0.02 0.00 63 1008.2
20260506045002 48 0 0.0 0.0 0.00 0.02 0.00 65 1008.2
20260506044902 48 0 0.0 0.0 0.00 0.02 0.00 65 1008.2
20260506044802 48 0 0.0 0.0 0.00 0.02 0.00 64 1008.2
20260506044702 48 0 0.0 0.0 0.00 0.02 0.00 62 1008.2
20260506044602 48 0 0.0 0.0 0.00 0.02 0.00 63 1008.2
20260506044502 48 0 0.0 0.0 0.00 0.02 0.00 63 1008.1
20260506044402 48 0 0.0 0.0 0.00 0.02 0.00 63 1008.1
20260506044302 48 0 0.0 0.0 0.00 0.02 0.00 64 1008.1
20260506044202 48 0 0.0 0.0 0.00 0.02 0.00 63 1008.1
20260506044123 48 0 0.0 0.0 0.00 0.02 0.00 63 1008.1
20260506044002 48 0 0.0 0.0 0.00 0.02 0.00 65 1008.2
20260506043902 48 0 0.0 0.0 0.00 0.02 0.00 65 1008.2
20260506043802 48 0 0.0 0.0 0.00 0.02 0.00 63 1008.2
20260506043702 48 0 0.0 0.0 0.00 0.02 0.00 63 1008.2
20260506043602 48 0 0.0 0.0 0.00 0.02 0.00 63 1008.2
20260506043502 48 0 0.0 0.0 0.00 0.02 0.00 65 1008.2
20260506043402 48 0 0.0 0.0 0.00 0.02 0.00 64 1008.2
20260506043302 48 0 0.0 0.0 0.00 0.02 0.00 63 1008.2
20260506043203 48 0 0.0 0.0 0.00 0.02 0.00 63 1008.1
20260506043102 48 0 0.0 0.0 0.00 0.02 0.00 63 1008.0
20260506043002 48 0 0.0 0.0 0.00 0.02 0.00 65 1008.0
20260506042902 48 0 0.0 0.0 0.00 0.02 0.00 66 1008.0
20260506042802 48 0 0.0 0.0 0.00 0.02 0.00 67 1008.0
20260506042702 48 0 0.0 0.0 0.00 0.02 0.00 67 1008.0
20260506042602 48 0 0.0 0.0 0.00 0.02 0.00 65 1008.0
20260506042502 48 0 0.0 0.0 0.00 0.02 0.00 63 1008.0
20260506042402 48 0 0.0 0.0 0.00 0.03 0.00 63 1008.0
20260506042305 48 0 0.0 0.0 0.00 0.03 0.00 63 1008.0
20260506042202 48 0 0.0 0.0 0.00 0.03 0.00 63 1008.0
20260506042102 48 0 0.0 0.0 0.00 0.03 0.00 61 1008.0
20260506042002 48 0 0.0 0.0 0.00 0.03 0.00 62 1008.0
20260506041902 48 0 0.0 0.0 0.00 0.04 0.00 62 1008.0
20260506041802 48 0 0.0 0.0 0.00 0.05 0.00 62 1008.0
20260506041723 48 0 0.0 0.0 0.00 0.05 0.00 62 1008.0
20260506041602 48 0 0.0 0.0 0.00 0.06 0.00 63 1008.0
20260506041503 48 0 0.0 0.0 0.00 0.06 0.00 63 1008.0
20260506041402 48 0 0.0 0.0 0.00 0.06 0.00 65 1007.9
20260506041323 48 0 0.0 0.0 0.00 0.07 0.00 65 1007.9
20260506041202 48 0 0.0 0.0 0.00 0.07 0.00 64 1007.9
20260506041102 48 0 0.0 0.0 0.00 0.07 0.00 65 1007.9
20260506041002 48 0 0.0 0.0 0.00 0.07 0.00 64 1007.9
20260506040902 48 0 0.0 0.0 0.00 0.07 0.00 63 1007.8
20260506040802 48 0 0.0 0.0 0.00 0.07 0.00 64 1007.9
20260506040702 48 0 0.0 0.0 0.00 0.07 0.00 63 1007.9
20260506040602 48 0 0.0 0.0 0.00 0.07 0.00 61 1008.0
20260506040502 48 0 0.0 0.0 0.00 0.07 0.00 62 1008.0
20260506040402 48 0 0.0 0.0 0.00 0.07 0.00 63 1008.0
20260506040302 48 0 0.0 0.0 0.00 0.07 0.00 66 1008.1
20260506040202 48 0 0.0 0.0 0.00 0.07 0.00 65 1008.1
20260506040123 48 0 0.0 0.0 0.00 0.07 0.00 65 1008.1
20260506040002 48 0 0.0 0.0 0.00 0.07 0.00 62 1008.1
20260506035902 48 0 0.0 0.0 0.00 0.07 0.07 63 1008.1
20260506035802 48 0 0.0 0.0 0.00 0.07 0.07 63 1008.1
20260506035702 48 0 0.0 0.0 0.00 0.07 0.07 64 1008.0
20260506035602 48 0 0.0 0.0 0.00 0.07 0.07 63 1007.9
20260506035502 48 207 0.0 0.9 0.00 0.07 0.07 61 1007.9
20260506035402 48 207 0.0 0.9 0.00 0.07 0.07 62 1007.9
20260506035305 48 207 0.0 0.9 0.00 0.07 0.07 64 1007.9
20260506035202 48 207 0.0 0.9 0.00 0.07 0.07 65 1007.9
20260506035102 48 207 0.0 0.9 0.00 0.07 0.07 65 1007.9
20260506035002 48 207 0.0 0.9 0.00 0.07 0.07 64 1007.9
20260506034902 48 207 0.0 0.9 0.00 0.07 0.07 64 1007.9
20260506034823 48 207 0.0 0.9 0.00 0.07 0.07 63 1007.9
20260506034702 48 207 0.0 0.9 0.00 0.07 0.07 64 1007.8
20260506034602 48 207 0.0 0.9 0.00 0.07 0.07 66 1007.8
20260506034502 48 207 0.0 0.9 0.00 0.07 0.07 64 1007.8
20260506034402 48 207 0.0 0.9 0.00 0.07 0.07 61 1007.8
20260506034302 48 207 0.0 0.9 0.00 0.07 0.07 61 1007.9
20260506034202 48 207 0.0 0.9 0.00 0.07 0.07 64 1007.9
20260506034102 48 207 0.0 0.9 0.00 0.07 0.07 64 1007.9
20260506034023 48 207 0.0 0.9 0.00 0.07 0.07 64 1007.9
20260506033902 48 207 0.0 0.9 0.00 0.07 0.07 62 1007.9
20260506033802 48 207 0.0 0.9 0.00 0.07 0.07 62 1007.9
20260506033702 48 0 0.0 0.0 0.00 0.07 0.07 62 1007.9
20260506033602 48 0 0.0 0.0 0.00 0.07 0.07 64 1007.9
20260506033502 48 0 0.0 0.0 0.00 0.07 0.07 65 1007.9
20260506033402 48 0 0.0 0.0 0.00 0.07 0.07 63 1007.9
20260506033302 48 0 0.0 0.0 0.00 0.07 0.07 63 1008.0
20260506033202 48 0 0.0 0.0 0.00 0.07 0.07 64 1008.0
20260506033102 48 0 0.0 0.0 0.00 0.07 0.07 64 1007.9
20260506033002 48 0 0.0 0.0 0.00 0.07 0.07 64 1007.9
20260506032902 48 0 0.0 0.0 0.00 0.07 0.07 63 1007.9
20260506032802 48 0 0.0 0.0 0.00 0.07 0.07 61 1007.9
20260506032702 48 0 0.0 0.0 0.00 0.07 0.07 61 1007.9
20260506032602 48 0 0.0 0.0 0.00 0.07 0.07 62 1007.8
20260506032502 48 0 0.0 0.0 0.00 0.07 0.07 61 1007.8
20260506032402 48 0 0.0 0.0 0.00 0.07 0.07 62 1007.8
20260506032305 48 0 0.0 0.0 0.00 0.07 0.07 62 1007.9
20260506032202 48 0 0.0 0.0 0.00 0.07 0.07 63 1007.9
20260506032102 48 0 0.0 0.0 0.00 0.07 0.07 62 1007.9
20260506032002 48 0 0.0 0.0 0.00 0.07 0.07 63 1007.9
20260506031902 48 0 0.0 0.0 0.00 0.07 0.07 63 1007.9
20260506031802 48 0 0.0 0.0 0.00 0.07 0.07 64 1007.9
20260506031702 48 0 0.0 0.0 0.00 0.07 0.07 64 1008.1
20260506031602 48 0 0.0 0.0 0.00 0.07 0.07 63 1008.1
20260506031502 48 0 0.0 0.0 0.00 0.07 0.07 63 1008.0
20260506031403 48 0 0.0 0.0 0.00 0.07 0.07 64 1008.0
20260506031302 48 0 0.0 0.0 0.00 0.07 0.07 63 1008.0
20260506031202 48 0 0.0 0.0 0.00 0.07 0.07 66 1007.9
20260506031102 48 0 0.0 0.0 0.00 0.07 0.07 64 1007.9
20260506031002 48 0 0.0 0.0 0.00 0.07 0.07 65 1007.9
20260506030902 48 0 0.0 0.0 0.00 0.07 0.07 65 1007.9
20260506030802 48 0 0.0 0.0 0.00 0.07 0.07 65 1007.9
20260506030702 48 0 0.0 0.0 0.00 0.07 0.07 64 1008.0
20260506030602 48 0 0.0 0.0 0.00 0.07 0.07 66 1008.0
20260506030502 48 0 0.0 0.0 0.00 0.07 0.07 65 1008.0
20260506030402 48 0 0.0 0.0 0.00 0.07 0.07 66 1008.0
20260506030302 48 0 0.0 0.0 0.00 0.07 0.07 61 1008.0
20260506030202 48 0 0.0 0.0 0.00 0.07 0.07 61 1008.1
20260506030123 48 0 0.0 0.0 0.00 0.07 0.07 61 1008.1
20260506030002 48 0 0.0 0.0 0.00 0.07 0.07 64 1008.0
20260506025902 48 0 0.0 0.0 0.00 0.07 0.07 65 1007.9
20260506025802 48 0 0.0 0.0 0.00 0.07 0.07 67 1007.9
20260506025723 48 0 0.0 0.0 0.00 0.07 0.07 67 1007.9
20260506025602 48 0 0.0 0.0 0.00 0.07 0.07 67 1007.9
20260506025502 48 0 0.0 0.0 0.00 0.07 0.07 66 1008.0
20260506025402 48 0 0.0 0.0 0.00 0.07 0.07 64 1008.0
20260506025305 48 0 0.0 0.0 0.00 0.07 0.07 64 1008.0
20260506025202 48 0 0.0 0.0 0.00 0.07 0.07 67 1008.0
20260506025102 48 0 0.0 0.0 0.00 0.07 0.07 67 1007.9
20260506025002 48 0 0.0 0.0 0.00 0.07 0.07 67 1007.9
20260506024902 48 0 0.0 0.0 0.00 0.07 0.07 63 1007.9
20260506024802 48 0 0.0 0.0 0.00 0.07 0.07 62 1007.9
20260506024702 48 0 0.0 0.0 0.00 0.07 0.07 62 1007.9
20260506024602 49 0 0.0 0.0 0.00 0.07 0.07 62 1007.9
20260506024502 49 0 0.0 0.0 0.00 0.07 0.07 63 1007.9
20260506024402 49 0 0.0 0.0 0.00 0.07 0.07 63 1007.9
20260506024302 49 0 0.0 0.0 0.00 0.07 0.07 63 1007.9
20260506024202 49 0 0.0 0.0 0.00 0.07 0.07 61 1007.9
20260506024102 49 0 0.0 0.0 0.00 0.07 0.07 61 1007.9
20260506024002 49 0 0.0 0.0 0.00 0.07 0.07 59 1007.9
20260506023902 49 0 0.0 0.0 0.00 0.07 0.07 60 1007.9
20260506023802 49 0 0.0 0.0 0.00 0.07 0.07 61 1007.9
20260506023723 49 0 0.0 0.0 0.00 0.07 0.07 62 1007.9
20260506023602 49 0 0.0 0.0 0.00 0.07 0.07 61 1008.0
20260506023502 49 0 0.0 0.0 0.00 0.07 0.07 62 1008.0
20260506023423 49 0 0.0 0.0 0.00 0.07 0.07 62 1008.0
20260506023323 49 0 0.0 0.0 0.00 0.07 0.07 63 1008.0
20260506023202 49 0 0.0 0.0 0.00 0.07 0.07 63 1007.9
20260506023102 49 0 0.0 0.0 0.00 0.07 0.07 61 1007.9
20260506023002 49 0 0.0 0.0 0.00 0.07 0.07 58 1007.9
20260506022902 49 0 0.0 0.0 0.00 0.07 0.07 57 1008.0
20260506022802 49 0 0.0 0.0 0.00 0.07 0.07 59 1008.0
20260506022702 49 0 0.0 0.0 0.00 0.07 0.07 59 1008.0
20260506022602 49 0 0.0 0.0 0.00 0.07 0.07 61 1008.0
20260506022502 49 0 0.0 0.0 0.00 0.07 0.07 57 1008.0
20260506022402 49 0 0.0 0.0 0.00 0.07 0.07 56 1008.0
20260506022323 49 0 0.0 0.0 0.00 0.07 0.07 56 1008.0
20260506022202 49 0 0.0 0.0 0.00 0.07 0.07 56 1008.1
20260506022102 49 0 0.0 0.0 0.00 0.07 0.07 59 1008.0
20260506022002 49 0 0.0 0.0 0.00 0.07 0.07 58 1008.0
20260506021902 49 0 0.0 0.0 0.00 0.07 0.07 59 1008.0
20260506021802 49 0 0.0 0.0 0.00 0.07 0.07 59 1007.9
20260506021702 49 0 0.0 0.0 0.00 0.07 0.07 58 1007.9
20260506021602 49 0 0.0 0.0 0.00 0.07 0.07 56 1007.8
20260506021502 49 0 0.0 0.0 0.00 0.07 0.07 58 1007.8
20260506021402 49 0 0.0 0.0 0.00 0.07 0.07 55 1007.8
20260506021323 49 0 0.0 0.0 0.00 0.07 0.07 55 1007.9
20260506021202 49 0 0.0 0.0 0.00 0.07 0.07 55 1007.9
20260506021102 49 0 0.0 0.0 0.00 0.07 0.07 56 1007.9
20260506021002 49 0 0.0 0.0 0.00 0.07 0.07 55 1007.9
20260506020902 49 207 0.0 0.9 0.00 0.07 0.07 56 1007.9
20260506020802 49 207 0.0 0.9 0.00 0.07 0.07 57 1007.8
20260506020702 49 207 0.0 0.9 0.00 0.07 0.07 55 1007.8
20260506020602 49 207 0.0 0.9 0.00 0.07 0.07 55 1007.7
20260506020502 49 207 0.0 0.9 0.00 0.07 0.07 54 1007.7
20260506020402 49 207 0.0 0.9 0.00 0.07 0.07 53 1007.7
20260506020302 49 207 0.0 0.9 0.00 0.07 0.07 55 1007.8
20260506020202 49 207 0.0 0.9 0.00 0.07 0.07 56 1007.8
20260506020002 49 207 0.0 0.9 0.00 0.07 0.07 54 1007.7
20260506015902 49 207 0.0 0.9 0.00 0.07 0.07 55 1007.7
20260506015802 49 207 0.0 0.9 0.00 0.07 0.07 53 1007.7
20260506015702 49 207 0.0 0.9 0.00 0.07 0.07 53 1007.8
20260506015602 49 207 0.0 0.9 0.00 0.07 0.07 52 1007.8
20260506015502 49 207 0.0 0.9 0.00 0.07 0.07 52 1007.9
20260506015402 49 207 0.0 0.9 0.00 0.07 0.07 53 1007.9
20260506015305 49 207 0.0 0.9 0.00 0.07 0.07 54 1007.8
20260506015202 49 207 0.0 0.9 0.00 0.07 0.07 54 1007.8
20260506015102 49 207 0.0 0.9 0.00 0.07 0.07 53 1007.8
20260506015002 49 207 0.0 0.9 0.00 0.07 0.07 53 1007.8
20260506014902 50 207 0.0 0.9 0.00 0.07 0.07 53 1007.8
20260506014802 50 207 0.0 0.9 0.00 0.07 0.07 55 1007.8
20260506014723 50 0 0.0 0.0 0.00 0.07 0.07 57 1007.8
20260506014602 50 0 0.0 0.0 0.00 0.07 0.07 56 1007.7
20260506014502 50 207 0.0 0.9 0.00 0.07 0.07 56 1007.7
20260506014423 50 208 0.0 0.9 0.00 0.07 0.07 55 1007.7
20260506014302 50 208 0.0 0.9 0.00 0.07 0.07 55 1007.6
20260506014202 50 208 0.0 0.9 0.00 0.07 0.07 57 1007.6
20260506014102 50 208 0.0 0.9 0.00 0.07 0.07 54 1007.6
20260506014002 50 209 0.0 0.9 0.00 0.07 0.07 55 1007.6
20260506013902 50 209 0.0 0.9 0.00 0.07 0.07 55 1007.6
20260506013802 50 209 0.0 0.9 0.00 0.07 0.07 55 1007.6
20260506013723 50 209 0.0 0.9 0.00 0.07 0.07 55 1007.6
20260506013602 50 210 0.0 0.9 0.00 0.07 0.07 51 1007.6
20260506013502 50 215 0.0 0.9 0.00 0.07 0.07 51 1007.5
20260506013402 50 214 0.0 0.9 0.00 0.07 0.07 51 1007.5
20260506013303 50 214 0.0 0.9 0.00 0.07 0.07 52 1007.5
20260506013223 50 214 0.0 0.9 0.00 0.07 0.07 52 1007.6
20260506013123 50 214 0.0 0.9 0.00 0.07 0.07 55 1007.6
20260506013002 50 214 0.0 0.9 0.00 0.07 0.07 52 1007.6
20260506012902 50 214 0.0 0.9 0.00 0.07 0.07 52 1007.5
20260506012802 50 214 0.0 0.9 0.00 0.07 0.07 52 1007.5
20260506012702 50 214 0.0 0.9 0.00 0.07 0.07 53 1007.5
20260506012623 50 213 0.0 0.9 0.00 0.07 0.07 51 1007.5
20260506012523 50 213 0.0 0.9 0.00 0.07 0.07 52 1007.5
20260506012402 50 0 0.0 0.0 0.00 0.07 0.07 56 1007.4
20260506012307 50 0 0.0 0.0 0.00 0.07 0.07 53 1007.4
20260506012202 50 0 0.0 0.0 0.00 0.07 0.07 54 1007.4
20260506012102 50 0 0.0 0.0 0.00 0.07 0.07 54 1007.4
20260506012023 50 0 0.0 0.0 0.00 0.07 0.07 53 1007.4
20260506011902 50 0 0.0 0.0 0.00 0.07 0.07 54 1007.3
20260506011802 50 0 0.0 0.0 0.00 0.07 0.07 54 1007.3
20260506011702 50 0 0.0 0.0 0.00 0.07 0.07 56 1007.3
20260506011602 50 0 0.0 0.0 0.00 0.07 0.07 56 1007.3
20260506011502 50 0 0.0 0.0 0.00 0.07 0.07 54 1007.3
20260506011423 50 0 0.0 0.0 0.00 0.07 0.07 54 1007.3
20260506011302 50 0 0.0 0.0 0.00 0.07 0.07 53 1007.3
20260506011202 50 0 0.0 0.0 0.00 0.07 0.07 51 1007.3
20260506011102 50 0 0.0 0.0 0.00 0.07 0.07 50 1007.3
20260506011002 50 222 0.0 0.9 0.00 0.07 0.07 52 1007.3
20260506010902 50 222 0.0 0.9 0.00 0.07 0.07 49 1007.3
20260506010802 50 222 0.0 0.9 0.00 0.07 0.07 52 1007.3
20260506010702 50 222 0.0 0.9 0.00 0.07 0.07 53 1007.3
20260506010602 50 222 0.0 0.9 0.00 0.07 0.07 50 1007.3
20260506010502 50 222 0.0 0.9 0.00 0.07 0.07 51 1007.3
20260506010423 50 222 0.0 0.9 0.00 0.07 0.07 50 1007.3
20260506010302 50 222 0.0 0.9 0.00 0.07 0.07 51 1007.3
20260506010223 50 222 0.0 0.9 0.00 0.07 0.07 51 1007.3
20260506010002 50 222 0.0 0.9 0.00 0.07 0.07 51 1007.3
20260506005902 50 219 0.0 1.7 0.00 0.07 0.07 49 1007.3
20260506005802 50 221 0.0 1.7 0.00 0.07 0.07 48 1007.3
20260506005702 50 221 0.0 1.7 0.00 0.07 0.07 50 1007.3
20260506005602 50 225 0.0 1.7 0.00 0.07 0.07 51 1007.3
20260506005502 50 225 0.0 1.7 0.00 0.07 0.07 50 1007.3
20260506005423 50 225 0.0 1.7 0.00 0.07 0.07 52 1007.3
20260506005305 50 225 0.0 1.7 0.00 0.07 0.07 52 1007.4
20260506005202 50 225 0.0 1.7 0.00 0.07 0.07 51 1007.4
20260506005123 50 225 0.0 1.7 0.00 0.07 0.07 51 1007.4
20260506005002 50 225 0.0 1.7 0.00 0.07 0.07 50 1007.4
20260506004902 50 312 0.0 0.9 0.00 0.07 0.07 49 1007.4
20260506004802 51 312 0.0 0.9 0.00 0.07 0.07 51 1007.4
20260506004702 51 312 0.0 0.9 0.00 0.07 0.07 53 1007.4
20260506004602 51 0 0.0 0.0 0.00 0.07 0.07 51 1007.5
20260506004503 51 0 0.0 0.0 0.00 0.07 0.07 51 1007.4
20260506004402 51 0 0.0 0.0 0.00 0.07 0.07 51 1007.4
20260506004302 51 0 0.0 0.0 0.00 0.07 0.07 50 1007.5
20260506004202 51 0 0.0 0.0 0.00 0.07 0.07 51 1007.5
20260506004102 51 328 0.0 0.9 0.00 0.07 0.07 50 1007.4
20260506004002 51 328 0.0 0.9 0.00 0.07 0.07 50 1007.4
20260506003902 51 328 0.0 0.9 0.00 0.07 0.07 51 1007.4
20260506003802 51 329 0.0 1.7 0.00 0.07 0.07 50 1007.4
20260506003702 51 329 0.0 1.7 0.00 0.07 0.07 50 1007.4
20260506003623 51 329 0.0 1.7 0.00 0.07 0.07 49 1007.4
20260506003502 51 332 0.0 1.7 0.00 0.07 0.07 48 1007.4
20260506003402 51 332 0.0 1.7 0.00 0.07 0.07 47 1007.4
20260506003323 51 332 0.0 1.7 0.00 0.07 0.07 47 1007.4
20260506003223 51 335 0.0 1.7 0.00 0.07 0.07 48 1007.4
20260506003123 51 335 0.0 1.7 0.00 0.07 0.07 47 1007.4
20260506003002 51 341 0.0 1.7 0.00 0.07 0.07 46 1007.5
20260506002923 51 344 0.0 1.7 0.00 0.07 0.07 45 1007.5
20260506002802 51 353 0.0 1.7 0.00 0.07 0.07 47 1007.4
20260506002702 51 350 0.0 1.7 0.00 0.07 0.07 46 1007.4
20260506002602 51 346 0.0 1.7 0.00 0.07 0.07 48 1007.4
20260506002502 51 348 0.0 1.7 0.00 0.07 0.07 48 1007.4
20260506002402 51 349 0.9 1.7 0.00 0.07 0.07 47 1007.4
20260506002305 51 352 0.9 1.7 0.00 0.07 0.07 45 1007.4
20260506002202 51 353 0.9 1.7 0.00 0.07 0.07 46 1007.4
20260506002123 51 353 0.9 1.7 0.00 0.07 0.07 46 1007.4
20260506002002 51 356 0.9 2.6 0.00 0.07 0.07 46 1007.4
20260506001902 51 356 0.9 2.6 0.00 0.07 0.07 45 1007.4
20260506001802 51 356 0.9 2.6 0.00 0.07 0.07 45 1007.4
20260506001702 51 358 0.9 2.6 0.00 0.07 0.07 48 1007.4
20260506001602 51 1 0.9 2.6 0.00 0.07 0.07 46 1007.4
20260506001502 51 2 0.9 2.6 0.00 0.07 0.07 46 1007.4
20260506001423 51 2 0.9 2.6 0.00 0.07 0.07 45 1007.4
20260506001302 51 356 0.9 2.6 0.00 0.07 0.07 46 1007.4
20260506001202 51 349 0.9 2.6 0.00 0.07 0.07 46 1007.5
20260506001102 51 347 0.9 2.6 0.00 0.07 0.07 47 1007.5
20260506001002 51 344 0.9 1.7 0.00 0.07 0.07 45 1007.4
20260506000923 51 343 0.9 1.7 0.00 0.07 0.07 45 1007.4
20260506000823 51 341 0.9 1.7 0.00 0.07 0.07 46 1007.4
20260506000702 51 344 0.9 2.6 0.00 0.07 0.07 46 1007.4
20260506000623 51 343 0.9 2.6 0.00 0.07 0.07 46 1007.4
20260506000502 51 341 0.9 2.6 0.00 0.07 0.07 46 1007.4
20260506000402 52 339 0.9 2.6 0.00 0.07 0.07 46 1007.4
20260506000302 52 341 0.9 2.6 0.00 0.07 0.07 45 1007.4
20260506000204 52 348 0.9 2.6 0.00 0.07 0.07 46 1007.3
20260506000002 52 350 0.9 2.6 0.00 0.07 0.07 48 1007.3
20260505235902 52 350 0.0 2.6 0.00 0.07 0.07 45 1007.3
20260505235802 52 348 0.0 1.7 0.00 0.07 0.07 45 1007.3
20260505235723 52 347 0.0 1.7 0.00 0.07 0.07 45 1007.3
20260505235623 52 349 0.0 2.6 0.00 0.07 0.07 46 1007.3
20260505235502 52 355 0.9 2.6 0.00 0.07 0.07 46 1007.3
20260505235402 52 355 0.9 2.6 0.00 0.07 0.07 47 1007.2
20260505235305 52 354 0.9 2.6 0.00 0.07 0.07 45 1007.2
20260505235202 52 351 0.9 2.6 0.00 0.07 0.07 45 1007.1
20260505235102 52 349 0.9 2.6 0.00 0.07 0.07 45 1007.2
20260505235002 52 350 0.9 2.6 0.00 0.07 0.07 44 1007.2
20260505234903 52 349 0.9 2.6 0.00 0.07 0.07 45 1007.2
20260505234802 52 349 0.9 2.6 0.00 0.07 0.07 45 1007.1
20260505234702 52 349 0.9 2.6 0.00 0.07 0.07 45 1007.1
20260505234602 52 348 0.9 2.6 0.00 0.07 0.07 45 1007.2
20260505234523 52 346 0.9 2.6 0.00 0.07 0.07 45 1007.2
20260505234423 52 344 0.9 2.6 0.00 0.07 0.07 45 1007.1
20260505234323 52 343 0.9 2.6 0.00 0.07 0.07 45 1007.1
20260505234202 52 344 0.9 2.6 0.00 0.07 0.07 45 1007.1
20260505234102 52 345 0.9 2.6 0.00 0.07 0.07 47 1007.0
20260505234002 52 340 0.0 2.6 0.00 0.07 0.07 46 1007.0
20260505233902 52 342 0.0 2.6 0.00 0.07 0.07 44 1006.9
20260505233802 52 335 0.0 2.6 0.00 0.07 0.07 46 1006.9
20260505233702 52 322 0.0 2.6 0.00 0.07 0.07 48 1006.9
20260505233602 52 247 0.0 1.7 0.00 0.07 0.07 45 1007.0
20260505233502 52 217 0.0 0.9 0.00 0.07 0.07 44 1007.0
20260505233423 52 216 0.0 0.9 0.00 0.07 0.07 44 1006.9
20260505233302 52 211 0.0 0.9 0.00 0.07 0.07 47 1006.9
20260505233202 52 212 0.0 0.9 0.00 0.07 0.07 47 1006.9
20260505233102 52 209 0.0 0.9 0.00 0.07 0.07 47 1006.9
20260505233002 52 202 0.0 0.9 0.00 0.07 0.07 46 1006.9
20260505232902 52 199 0.0 0.9 0.00 0.07 0.07 45 1006.9
20260505232802 52 203 0.0 3.5 0.00 0.07 0.07 44 1006.8
20260505232702 52 203 0.0 3.5 0.00 0.07 0.07 45 1006.8
20260505232602 53 203 0.0 3.5 0.00 0.07 0.07 46 1006.8
20260505232502 53 205 0.0 3.5 0.00 0.07 0.07 43 1006.8
20260505232402 53 206 0.0 3.5 0.00 0.07 0.07 44 1006.8
20260505232305 53 206 0.0 3.5 0.00 0.07 0.07 45 1006.9
20260505232202 53 206 0.0 3.5 0.00 0.07 0.07 45 1006.9
20260505232102 53 207 0.0 3.5 0.00 0.07 0.07 43 1006.9
20260505232002 53 211 0.0 3.5 0.00 0.07 0.07 44 1006.8
20260505231902 53 217 0.0 3.5 0.00 0.07 0.07 44 1006.8
20260505231802 53 227 0.0 3.5 0.00 0.07 0.07 46 1006.8
20260505231702 53 227 0.0 3.5 0.00 0.07 0.07 44 1006.9
20260505231602 53 227 0.9 3.5 0.00 0.07 0.07 43 1006.9
20260505231502 53 231 0.9 3.5 0.00 0.07 0.07 45 1006.8
20260505231402 53 256 0.9 3.5 0.00 0.07 0.07 46 1006.8
20260505231302 53 254 0.9 3.5 0.00 0.07 0.07 47 1006.8
20260505231202 53 249 0.9 3.5 0.00 0.07 0.07 43 1006.8
20260505231102 53 266 0.9 3.5 0.00 0.07 0.07 45 1006.8
20260505231002 53 320 0.9 2.6 0.00 0.07 0.07 44 1006.8
20260505230902 53 337 0.9 2.6 0.00 0.07 0.07 46 1006.8
20260505230823 53 348 0.9 2.6 0.00 0.07 0.07 44 1006.7
20260505230702 53 347 0.9 2.6 0.00 0.07 0.07 44 1006.8
20260505230602 53 354 0.9 2.6 0.00 0.07 0.07 45 1006.8
20260505230502 53 352 0.9 2.6 0.00 0.07 0.07 46 1006.8
20260505230402 53 352 0.9 1.7 0.00 0.07 0.07 48 1006.8
20260505230302 53 354 0.9 1.7 0.00 0.07 0.07 47 1006.8
20260505230202 53 360 0.9 1.7 0.00 0.07 0.07 46 1006.8
20260505230023 53 3 0.0 1.7 0.00 0.07 0.07 49 1006.8
20260505225902 53 334 0.0 1.7 0.00 0.07 0.07 47 1006.7
20260505225823 53 331 0.0 0.9 0.00 0.07 0.07 51 1006.7
20260505225723 53 339 0.0 0.9 0.00 0.07 0.07 50 1006.8
20260505225602 53 335 0.0 0.9 0.00 0.07 0.07 49 1006.8
20260505225502 53 350 0.0 0.9 0.00 0.07 0.07 49 1006.8
20260505225402 53 222 0.0 2.6 0.00 0.07 0.07 49 1006.8
20260505225323 53 227 0.9 2.6 0.00 0.07 0.07 49 1006.8
20260505225202 53 224 0.9 2.6 0.00 0.07 0.07 49 1006.7
20260505225102 53 224 0.9 2.6 0.00 0.07 0.07 48 1006.7
20260505225002 53 219 0.0 2.6 0.00 0.07 0.07 51 1006.8
20260505224923 53 219 0.0 2.6 0.00 0.07 0.07 51 1006.8
20260505224802 53 223 0.9 2.6 0.00 0.07 0.07 49 1006.7
20260505224702 53 232 0.9 2.6 0.00 0.07 0.07 49 1006.8
20260505224602 53 235 0.9 2.6 0.00 0.07 0.07 48 1006.8
20260505224502 53 244 0.9 2.6 0.00 0.07 0.07 47 1006.8
20260505224402 53 277 0.9 2.6 0.00 0.07 0.07 49 1006.8
20260505224323 54 320 0.0 2.6 0.00 0.07 0.07 48 1006.8
20260505224223 53 350 0.0 1.7 0.00 0.07 0.07 50 1006.8
20260505224102 53 350 0.0 1.7 0.00 0.07 0.07 52 1006.8
20260505224002 53 350 0.0 1.7 0.00 0.07 0.07 50 1006.8
20260505223902 53 323 0.0 2.6 0.00 0.07 0.07 46 1006.8
20260505223823 53 271 0.9 4.3 0.00 0.07 0.07 49 1006.8
20260505223702 53 229 0.9 5.2 0.00 0.07 0.07 48 1006.8
20260505223602 53 228 0.9 5.2 0.00 0.07 0.07 47 1006.9
20260505223523 54 226 0.9 5.2 0.00 0.07 0.07 47 1006.9
20260505223402 54 224 0.9 5.2 0.00 0.07 0.07 49 1006.9
20260505223302 53 224 0.9 5.2 0.00 0.07 0.07 49 1006.9
20260505223202 54 223 0.9 5.2 0.00 0.07 0.07 50 1006.9
20260505223102 54 224 0.9 5.2 0.00 0.07 0.07 48 1006.9
20260505223023 54 228 0.9 5.2 0.00 0.07 0.07 48 1006.9
20260505222902 54 231 0.9 5.2 0.00 0.07 0.07 46 1006.9
20260505222823 54 229 0.0 5.2 0.00 0.07 0.07 47 1006.9
20260505222702 54 339 0.0 1.7 0.00 0.07 0.07 48 1006.9
20260505222602 54 339 0.0 1.7 0.00 0.07 0.07 48 1006.9
20260505222523 54 339 0.0 1.7 0.00 0.07 0.07 50 1006.9
20260505222423 54 336 0.0 1.7 0.00 0.07 0.07 49 1006.9
20260505222305 54 336 0.0 1.7 0.00 0.07 0.07 49 1006.9
20260505222202 54 350 0.0 1.7 0.00 0.07 0.07 50 1006.9